Wetterdaten: Mittwoch, 18.12.2013
Datum Zeit Temp. Aussen +5cm Feuchte Auss Luftdruck Regen Sonnenschein Regendauer UV Solar Windben
18.12.2013 00:00 4,2 C 2,8 C 95 % 1021,4 hPa 0,0 l/m 0 min 0 min 0,0 UV-I 0 W/m 0,0 km/h (0 Bft)
18.12.2013 00:02 4,2 C 2,8 C 95 % 1021,4 hPa 0,0 l/m 0 min 0 min 0,0 UV-I 0 W/m 0,0 km/h (0 Bft)
18.12.2013 00:06 4,2 C 2,8 C 90 % 1021,4 hPa 0,0 l/m 0 min 0 min 0,0 UV-I 0 W/m 0,0 km/h (0 Bft)
18.12.2013 00:08 4,2 C 2,8 C 90 % 1021,3 hPa 0,0 l/m 0 min 0 min 0,0 UV-I 0 W/m 0,0 km/h (0 Bft)
18.12.2013 00:10 4,2 C 2,8 C 90 % 1021,3 hPa 0,0 l/m 0 min 0 min 0,0 UV-I 0 W/m 0,0 km/h (0 Bft)
18.12.2013 00:12 4,2 C 2,8 C 90 % 1021,3 hPa 0,0 l/m 0 min 0 min 0,0 UV-I 0 W/m 0,0 km/h (0 Bft)
18.12.2013 00:14 4,2 C 2,8 C 90 % 1021,3 hPa 0,0 l/m 0 min 0 min 0,0 UV-I 0 W/m 0,0 km/h (0 Bft)
18.12.2013 00:16 4,2 C 2,8 C 90 % 1021,4 hPa 0,0 l/m 0 min 0 min 0,0 UV-I 0 W/m 0,0 km/h (0 Bft)
18.12.2013 00:18 4,2 C 2,8 C 90 % 1021,4 hPa 0,0 l/m 0 min 0 min 0,0 UV-I 0 W/m 0,0 km/h (0 Bft)
18.12.2013 00:20 4,2 C 2,8 C 90 % 1021,4 hPa 0,0 l/m 0 min 0 min 0,0 UV-I 0 W/m 0,0 km/h (0 Bft)
18.12.2013 00:22 4,2 C 2,8 C 90 % 1021,4 hPa 0,0 l/m 0 min 0 min 0,0 UV-I 0 W/m 0,0 km/h (0 Bft)
18.12.2013 00:24 4,2 C 2,8 C 90 % 1021,3 hPa 0,0 l/m 0 min 0 min 0,0 UV-I 0 W/m 0,0 km/h (0 Bft)
18.12.2013 00:26 4,2 C 2,8 C 90 % 1021,3 hPa 0,0 l/m 0 min 0 min 0,0 UV-I 0 W/m 0,0 km/h (0 Bft)
18.12.2013 00:28 4,2 C 2,8 C 90 % 1021,3 hPa 0,0 l/m 0 min 0 min 0,0 UV-I 0 W/m 0,0 km/h (0 Bft)
18.12.2013 00:30 4,2 C 2,8 C 90 % 1021,3 hPa 0,0 l/m 0 min 0 min 0,0 UV-I 0 W/m 0,0 km/h (0 Bft)
18.12.2013 00:32 4,2 C 2,8 C 90 % 1021,3 hPa 0,0 l/m 0 min 0 min 0,0 UV-I 0 W/m 0,0 km/h (0 Bft)
18.12.2013 00:34 4,2 C 2,8 C 90 % 1021,3 hPa 0,0 l/m 0 min 0 min 0,0 UV-I 0 W/m 0,0 km/h (0 Bft)
18.12.2013 00:36 4,2 C 2,8 C 90 % 1021,3 hPa 0,0 l/m 0 min 0 min 0,0 UV-I 0 W/m 0,0 km/h (0 Bft)
18.12.2013 00:38 4,2 C 2,8 C 90 % 1021,2 hPa 0,0 l/m 0 min 0 min 0,0 UV-I 0 W/m 0,0 km/h (0 Bft)
18.12.2013 00:40 4,2 C 2,8 C 90 % 1021,3 hPa 0,0 l/m 0 min 0 min 0,0 UV-I 0 W/m 0,0 km/h (0 Bft)
18.12.2013 00:42 4,2 C 2,8 C 90 % 1021,2 hPa 0,0 l/m 0 min 0 min 0,0 UV-I 0 W/m 0,0 km/h (0 Bft)
18.12.2013 00:44 4,2 C 2,8 C 90 % 1021,2 hPa 0,0 l/m 0 min 0 min 0,0 UV-I 0 W/m 0,0 km/h (0 Bft)
18.12.2013 00:46 4,2 C 2,8 C 90 % 1021,2 hPa 0,0 l/m 0 min 0 min 0,0 UV-I 0 W/m 0,0 km/h (0 Bft)
18.12.2013 00:48 4,2 C 2,8 C 90 % 1021,1 hPa 0,0 l/m 0 min 0 min 0,0 UV-I 0 W/m 0,0 km/h (0 Bft)
18.12.2013 00:50 4,2 C 2,8 C 90 % 1021,1 hPa 0,0 l/m 0 min 0 min 0,0 UV-I 0 W/m 0,0 km/h (0 Bft)
18.12.2013 00:52 4,2 C 2,8 C 90 % 1021,0 hPa 0,0 l/m 0 min 0 min 0,0 UV-I 0 W/m 0,0 km/h (0 Bft)
18.12.2013 00:54 4,2 C 2,8 C 90 % 1021,0 hPa 0,0 l/m 0 min 0 min 0,0 UV-I 0 W/m 0,0 km/h (0 Bft)
18.12.2013 00:56 4,2 C 2,8 C 90 % 1020,9 hPa 0,0 l/m 0 min 0 min 0,0 UV-I 0 W/m 7,7 km/h (2 Bft)
18.12.2013 00:58 4,2 C 2,8 C 89 % 1020,9 hPa 0,0 l/m 0 min 0 min 0,0 UV-I 0 W/m 0,0 km/h (0 Bft)
18.12.2013 01:00 4,2 C 2,8 C 89 % 1020,8 hPa 0,0 l/m 0 min 0 min 0,0 UV-I 0 W/m 5,1 km/h (1 Bft)
18.12.2013 01:02 4,2 C 2,8 C 89 % 1020,8 hPa 0,0 l/m 0 min 0 min 0,0 UV-I 0 W/m 2,6 km/h (1 Bft)
18.12.2013 01:04 4,2 C 2,8 C 89 % 1020,8 hPa 0,0 l/m 0 min 0 min 0,0 UV-I 0 W/m 10,3 km/h (2 Bft)
18.12.2013 01:06 4,2 C 2,8 C 89 % 1020,8 hPa 0,0 l/m 0 min 0 min 0,0 UV-I 0 W/m 0,0 km/h (0 Bft)
18.12.2013 01:08 4,2 C 2,8 C 89 % 1020,7 hPa 0,0 l/m 0 min 0 min 0,0 UV-I 0 W/m 10,3 km/h (2 Bft)
18.12.2013 01:10 4,2 C 2,8 C 89 % 1020,6 hPa 0,0 l/m 0 min 0 min 0,0 UV-I 0 W/m 10,3 km/h (2 Bft)
18.12.2013 01:12 4,2 C 2,8 C 89 % 1020,6 hPa 0,0 l/m 0 min 0 min 0,0 UV-I 0 W/m 7,7 km/h (2 Bft)
18.12.2013 01:14 4,2 C 2,8 C 89 % 1020,5 hPa 0,0 l/m 0 min 0 min 0,0 UV-I 0 W/m 12,9 km/h (3 Bft)
18.12.2013 01:16 4,2 C 2,8 C 89 % 1020,5 hPa 0,0 l/m 0 min 0 min 0,0 UV-I 0 W/m 10,3 km/h (2 Bft)
18.12.2013 01:18 4,2 C 2,8 C 89 % 1020,5 hPa 0,0 l/m 0 min 0 min 0,0 UV-I 0 W/m 7,7 km/h (2 Bft)
18.12.2013 01:20 4,2 C 2,8 C 89 % 1020,4 hPa 0,0 l/m 0 min 0 min 0,0 UV-I 0 W/m 10,3 km/h (2 Bft)
18.12.2013 01:22 4,2 C 2,8 C 89 % 1020,4 hPa 0,0 l/m 0 min 0 min 0,0 UV-I 0 W/m 12,9 km/h (3 Bft)
18.12.2013 01:24 4,2 C 2,8 C 89 % 1020,3 hPa 0,0 l/m 0 min 0 min 0,0 UV-I 0 W/m 10,3 km/h (2 Bft)
18.12.2013 01:26 4,2 C 2,8 C 89 % 1020,3 hPa 0,0 l/m 0 min 0 min 0,0 UV-I 0 W/m 2,6 km/h (1 Bft)
18.12.2013 01:28 4,2 C 2,8 C 89 % 1020,3 hPa 0,0 l/m 0 min 0 min 0,0 UV-I 0 W/m 2,6 km/h (1 Bft)
18.12.2013 01:30 4,3 C 2,8 C 89 % 1020,3 hPa 0,0 l/m 0 min 0 min 0,0 UV-I 0 W/m 2,6 km/h (1 Bft)
18.12.2013 01:32 4,2 C 2,8 C 89 % 1020,3 hPa 0,0 l/m 0 min 0 min 0,0 UV-I 0 W/m 10,3 km/h (2 Bft)
18.12.2013 01:34 4,2 C 2,8 C 89 % 1020,2 hPa 0,0 l/m 0 min 0 min 0,0 UV-I 0 W/m 2,6 km/h (1 Bft)
18.12.2013 01:36 4,3 C 2,8 C 89 % 1020,2 hPa 0,0 l/m 0 min 0 min 0,0 UV-I 0 W/m 5,1 km/h (1 Bft)
18.12.2013 01:38 4,3 C 2,8 C 89 % 1020,2 hPa 0,0 l/m 0 min 0 min 0,0 UV-I 0 W/m 2,6 km/h (1 Bft)
18.12.2013 01:40 4,2 C 2,8 C 89 % 1020,1 hPa 0,0 l/m 0 min 0 min 0,0 UV-I 0 W/m 0,0 km/h (0 Bft)
18.12.2013 01:42 4,2 C 2,8 C 89 % 1020,2 hPa 0,0 l/m 0 min 0 min 0,0 UV-I 0 W/m 7,7 km/h (2 Bft)
18.12.2013 01:44 4,2 C 2,8 C 89 % 1020,1 hPa 0,0 l/m 0 min 0 min 0,0 UV-I 0 W/m 5,1 km/h (1 Bft)
18.12.2013 01:46 4,2 C 2,8 C 89 % 1020,1 hPa 0,0 l/m 0 min 0 min 0,0 UV-I 0 W/m 7,7 km/h (2 Bft)
18.12.2013 01:48 4,2 C 2,8 C 89 % 1020,0 hPa 0,0 l/m 0 min 0 min 0,0 UV-I 0 W/m 7,7 km/h (2 Bft)
18.12.2013 01:50 4,2 C 2,8 C 89 % 1020,0 hPa 0,0 l/m 0 min 0 min 0,0 UV-I 0 W/m 10,3 km/h (2 Bft)
18.12.2013 01:52 4,2 C 2,8 C 89 % 1020,0 hPa 0,0 l/m 0 min 0 min 0,0 UV-I 0 W/m 7,7 km/h (2 Bft)
18.12.2013 01:54 4,3 C 2,8 C 89 % 1020,0 hPa 0,0 l/m 0 min 0 min 0,0 UV-I 0 W/m 5,1 km/h (1 Bft)
18.12.2013 01:56 4,2 C 2,8 C 89 % 1020,1 hPa 0,0 l/m 0 min 0 min 0,0 UV-I 0 W/m 10,3 km/h (2 Bft)
18.12.2013 01:58 4,3 C 2,8 C 89 % 1020,0 hPa 0,0 l/m 0 min 0 min 0,0 UV-I 0 W/m 7,7 km/h (2 Bft)
18.12.2013 02:00 4,3 C 2,8 C 89 % 1020,0 hPa 0,0 l/m 0 min 0 min 0,0 UV-I 0 W/m 7,7 km/h (2 Bft)
18.12.2013 02:02 4,3 C 2,8 C 89 % 1020,1 hPa 0,0 l/m 0 min 0 min 0,0 UV-I 0 W/m 7,7 km/h (2 Bft)
18.12.2013 02:04 4,3 C 2,8 C 89 % 1019,9 hPa 0,0 l/m 0 min 0 min 0,0 UV-I 0 W/m 7,7 km/h (2 Bft)
18.12.2013 02:06 4,3 C 2,8 C 89 % 1020,0 hPa 0,0 l/m 0 min 0 min 0,0 UV-I 0 W/m 7,7 km/h (2 Bft)
18.12.2013 02:08 4,3 C 3,3 C 89 % 1020,0 hPa 0,0 l/m 0 min 0 min 0,0 UV-I 0 W/m 12,9 km/h (3 Bft)
18.12.2013 02:10 4,3 C 3,3 C 89 % 1020,0 hPa 0,0 l/m 0 min 0 min 0,0 UV-I 0 W/m 10,3 km/h (2 Bft)
18.12.2013 02:12 4,3 C 3,3 C 89 % 1019,9 hPa 0,0 l/m 0 min 0 min 0,0 UV-I 0 W/m 15,4 km/h (3 Bft)
18.12.2013 02:14 4,3 C 3,3 C 89 % 1019,9 hPa 0,0 l/m 0 min 0 min 0,0 UV-I 0 W/m 12,9 km/h (3 Bft)
18.12.2013 02:16 4,4 C 3,3 C 89 % 1019,9 hPa 0,0 l/m 0 min 0 min 0,0 UV-I 0 W/m 15,4 km/h (3 Bft)
18.12.2013 02:18 4,4 C 3,3 C 89 % 1019,9 hPa 0,0 l/m 0 min 0 min 0,0 UV-I 0 W/m 18,0 km/h (3 Bft)
18.12.2013 02:20 4,4 C 3,3 C 89 % 1019,8 hPa 0,0 l/m 0 min 0 min 0,0 UV-I 0 W/m 18,0 km/h (3 Bft)
18.12.2013 02:22 4,5 C 3,3 C 89 % 1019,8 hPa 0,0 l/m 0 min 0 min 0,0 UV-I 0 W/m 20,6 km/h (4 Bft)
18.12.2013 02:24 4,5 C 3,3 C 89 % 1019,8 hPa 0,0 l/m 0 min 0 min 0,0 UV-I 0 W/m 15,4 km/h (3 Bft)
18.12.2013 02:26 4,6 C 3,3 C 89 % 1019,8 hPa 0,0 l/m 0 min 0 min 0,0 UV-I 0 W/m 12,9 km/h (3 Bft)
18.12.2013 02:28 4,6 C 3,3 C 89 % 1019,9 hPa 0,0 l/m 0 min 0 min 0,0 UV-I 0 W/m 15,4 km/h (3 Bft)
18.12.2013 02:30 4,7 C 3,3 C 89 % 1019,8 hPa 0,0 l/m 0 min 0 min 0,0 UV-I 0 W/m 12,9 km/h (3 Bft)
18.12.2013 02:32 4,7 C 3,3 C 89 % 1019,8 hPa 0,0 l/m 0 min 0 min 0,0 UV-I 0 W/m 10,3 km/h (2 Bft)
18.12.2013 02:34 4,7 C 3,3 C 89 % 1019,8 hPa 0,0 l/m 0 min 0 min 0,0 UV-I 0 W/m 15,4 km/h (3 Bft)
18.12.2013 02:36 4,7 C 3,3 C 89 % 1019,8 hPa 0,0 l/m 0 min 0 min 0,0 UV-I 0 W/m 15,4 km/h (3 Bft)
18.12.2013 02:38 4,7 C 3,3 C 89 % 1019,8 hPa 0,0 l/m 0 min 0 min 0,0 UV-I 0 W/m 12,9 km/h (3 Bft)
18.12.2013 02:40 4,8 C 3,3 C 89 % 1019,9 hPa 0,0 l/m 0 min 0 min 0,0 UV-I 0 W/m 7,7 km/h (2 Bft)
18.12.2013 02:42 4,8 C 3,3 C 89 % 1019,8 hPa 0,0 l/m 0 min 0 min 0,0 UV-I 0 W/m 12,9 km/h (3 Bft)
18.12.2013 02:44 4,8 C 3,3 C 88 % 1019,8 hPa 0,0 l/m 0 min 0 min 0,0 UV-I 0 W/m 10,3 km/h (2 Bft)
18.12.2013 02:46 4,8 C 3,3 C 89 % 1019,8 hPa 0,0 l/m 0 min 0 min 0,0 UV-I 0 W/m 12,9 km/h (3 Bft)
18.12.2013 02:48 4,8 C 3,3 C 89 % 1019,9 hPa 0,0 l/m 0 min 0 min 0,0 UV-I 0 W/m 18,0 km/h (3 Bft)
18.12.2013 02:50 4,8 C 3,3 C 88 % 1019,9 hPa 0,0 l/m 0 min 0 min 0,0 UV-I 0 W/m 15,4 km/h (3 Bft)
18.12.2013 02:52 4,8 C 3,3 C 88 % 1019,9 hPa 0,0 l/m 0 min 0 min 0,0 UV-I 0 W/m 10,3 km/h (2 Bft)
18.12.2013 02:54 4,8 C 3,3 C 88 % 1019,9 hPa 0,0 l/m 0 min 0 min 0,0 UV-I 0 W/m 15,4 km/h (3 Bft)
18.12.2013 02:56 4,8 C 3,3 C 88 % 1019,9 hPa 0,0 l/m 0 min 0 min 0,0 UV-I 0 W/m 10,3 km/h (2 Bft)
18.12.2013 02:58 4,8 C 3,3 C 88 % 1019,9 hPa 0,0 l/m 0 min 0 min 0,0 UV-I 0 W/m 2,6 km/h (1 Bft)
18.12.2013 03:00 4,8 C 3,3 C 88 % 1019,9 hPa 0,0 l/m 0 min 0 min 0,0 UV-I 0 W/m 5,1 km/h (1 Bft)
18.12.2013 03:02 4,8 C 3,3 C 88 % 1019,9 hPa 0,0 l/m 0 min 0 min 0,0 UV-I 0 W/m 5,1 km/h (1 Bft)
18.12.2013 03:04 4,8 C 3,3 C 88 % 1019,9 hPa 0,0 l/m 0 min 0 min 0,0 UV-I 0 W/m 10,3 km/h (2 Bft)
18.12.2013 03:06 4,8 C 3,3 C 88 % 1019,8 hPa 0,0 l/m 0 min 0 min 0,0 UV-I 0 W/m 18,0 km/h (3 Bft)
18.12.2013 03:08 4,8 C 3,3 C 88 % 1019,8 hPa 0,0 l/m 0 min 0 min 0,0 UV-I 0 W/m 12,9 km/h (3 Bft)
18.12.2013 03:10 4,8 C 3,3 C 88 % 1019,8 hPa 0,0 l/m 0 min 0 min 0,0 UV-I 0 W/m 10,3 km/h (2 Bft)
18.12.2013 03:12 4,8 C 3,3 C 88 % 1019,7 hPa 0,0 l/m 0 min 0 min 0,0 UV-I 0 W/m 12,9 km/h (3 Bft)
18.12.2013 03:14 4,8 C 3,3 C 88 % 1019,8 hPa 0,0 l/m 0 min 0 min 0,0 UV-I 0 W/m 18,0 km/h (3 Bft)
18.12.2013 03:16 4,8 C 3,3 C 88 % 1019,8 hPa 0,0 l/m 0 min 0 min 0,0 UV-I 0 W/m 12,9 km/h (3 Bft)
18.12.2013 03:18 4,8 C 3,3 C 88 % 1019,7 hPa 0,0 l/m 0 min 0 min 0,0 UV-I 0 W/m 12,9 km/h (3 Bft)
18.12.2013 03:20 4,8 C 3,3 C 88 % 1019,7 hPa 0,0 l/m 0 min 0 min 0,0 UV-I 0 W/m 10,3 km/h (2 Bft)
18.12.2013 03:22 4,8 C 3,3 C 88 % 1019,7 hPa 0,0 l/m 0 min 0 min 0,0 UV-I 0 W/m 7,7 km/h (2 Bft)
18.12.2013 03:24 4,8 C 3,3 C 88 % 1019,7 hPa 0,0 l/m 0 min 0 min 0,0 UV-I 0 W/m 10,3 km/h (2 Bft)
18.12.2013 03:26 4,8 C 3,3 C 88 % 1019,7 hPa 0,0 l/m 0 min 0 min 0,0 UV-I 0 W/m 15,4 km/h (3 Bft)
18.12.2013 03:28 4,8 C 3,3 C 88 % 1019,7 hPa 0,0 l/m 0 min 0 min 0,0 UV-I 0 W/m 10,3 km/h (2 Bft)
18.12.2013 03:30 4,8 C 3,3 C 88 % 1019,8 hPa 0,0 l/m 0 min 0 min 0,0 UV-I 0 W/m 23,2 km/h (4 Bft)
18.12.2013 03:32 4,8 C 3,3 C 88 % 1019,7 hPa 0,0 l/m 0 min 0 min 0,0 UV-I 0 W/m 12,9 km/h (3 Bft)
18.12.2013 03:34 4,9 C 3,3 C 88 % 1019,7 hPa 0,0 l/m 0 min 0 min 0,0 UV-I 0 W/m 12,9 km/h (3 Bft)
18.12.2013 03:36 4,9 C 3,3 C 88 % 1019,8 hPa 0,0 l/m 0 min 0 min 0,0 UV-I 0 W/m 12,9 km/h (3 Bft)
18.12.2013 03:38 4,9 C 3,9 C 88 % 1019,7 hPa 0,0 l/m 0 min 0 min 0,0 UV-I 0 W/m 10,3 km/h (2 Bft)
18.12.2013 03:40 4,9 C 3,9 C 88 % 1019,7 hPa 0,0 l/m 0 min 0 min 0,0 UV-I 0 W/m 12,9 km/h (3 Bft)
18.12.2013 03:42 4,9 C 3,9 C 88 % 1019,7 hPa 0,0 l/m 0 min 0 min 0,0 UV-I 0 W/m 15,4 km/h (3 Bft)
18.12.2013 03:44 4,9 C 3,9 C 88 % 1019,6 hPa 0,0 l/m 0 min 0 min 0,0 UV-I 0 W/m 10,3 km/h (2 Bft)
18.12.2013 03:46 4,9 C 3,9 C 88 % 1019,5 hPa 0,0 l/m 0 min 0 min 0,0 UV-I 0 W/m 15,4 km/h (3 Bft)
18.12.2013 03:48 4,9 C 3,9 C 88 % 1019,5 hPa 0,0 l/m 0 min 0 min 0,0 UV-I 0 W/m 18,0 km/h (3 Bft)
18.12.2013 03:50 4,9 C 3,9 C 88 % 1019,5 hPa 0,0 l/m 0 min 0 min 0,0 UV-I 0 W/m 10,3 km/h (2 Bft)
18.12.2013 03:52 4,9 C 3,9 C 88 % 1019,5 hPa 0,0 l/m 0 min 0 min 0,0 UV-I 0 W/m 15,4 km/h (3 Bft)
18.12.2013 03:54 4,9 C 3,9 C 88 % 1019,5 hPa 0,0 l/m 0 min 0 min 0,0 UV-I 0 W/m 7,7 km/h (2 Bft)
18.12.2013 03:56 5,0 C 3,9 C 88 % 1019,5 hPa 0,0 l/m 0 min 0 min 0,0 UV-I 0 W/m 5,1 km/h (1 Bft)
18.12.2013 03:58 5,0 C 3,9 C 88 % 1019,5 hPa 0,0 l/m 0 min 0 min 0,0 UV-I 0 W/m 10,3 km/h (2 Bft)
18.12.2013 04:00 5,0 C 3,9 C 88 % 1019,4 hPa 0,0 l/m 0 min 0 min 0,0 UV-I 0 W/m 10,3 km/h (2 Bft)
18.12.2013 04:02 5,0 C 3,9 C 88 % 1019,4 hPa 0,0 l/m 0 min 0 min 0,0 UV-I 0 W/m 12,9 km/h (3 Bft)
18.12.2013 04:04 5,0 C 3,3 C 88 % 1019,3 hPa 0,0 l/m 0 min 0 min 0,0 UV-I 0 W/m 10,3 km/h (2 Bft)
18.12.2013 04:06 5,0 C 3,3 C 88 % 1019,4 hPa 0,0 l/m 0 min 0 min 0,0 UV-I 0 W/m 18,0 km/h (3 Bft)
18.12.2013 04:08 4,9 C 3,3 C 88 % 1019,4 hPa 0,0 l/m 0 min 0 min 0,0 UV-I 0 W/m 15,4 km/h (3 Bft)
18.12.2013 04:10 4,9 C 3,3 C 88 % 1019,3 hPa 0,0 l/m 0 min 0 min 0,0 UV-I 0 W/m 23,2 km/h (4 Bft)
18.12.2013 04:12 4,9 C 3,3 C 88 % 1019,3 hPa 0,0 l/m 0 min 0 min 0,0 UV-I 0 W/m 12,9 km/h (3 Bft)
18.12.2013 04:14 4,9 C 3,9 C 88 % 1019,3 hPa 0,0 l/m 0 min 0 min 0,0 UV-I 0 W/m 15,4 km/h (3 Bft)
18.12.2013 04:16 4,9 C 3,9 C 88 % 1019,3 hPa 0,0 l/m 0 min 0 min 0,0 UV-I 0 W/m 10,3 km/h (2 Bft)
18.12.2013 04:18 4,9 C 3,9 C 88 % 1019,2 hPa 0,0 l/m 0 min 0 min 0,0 UV-I 0 W/m 20,6 km/h (4 Bft)
18.12.2013 04:20 4,9 C 3,9 C 88 % 1019,2 hPa 0,0 l/m 0 min 0 min 0,0 UV-I 0 W/m 12,9 km/h (3 Bft)
18.12.2013 04:22 4,9 C 3,9 C 88 % 1019,2 hPa 0,0 l/m 0 min 0 min 0,0 UV-I 0 W/m 7,7 km/h (2 Bft)
18.12.2013 04:24 4,9 C 3,9 C 88 % 1019,2 hPa 0,0 l/m 0 min 0 min 0,0 UV-I 0 W/m 18,0 km/h (3 Bft)
18.12.2013 04:26 5,0 C 3,9 C 88 % 1019,1 hPa 0,0 l/m 0 min 0 min 0,0 UV-I 0 W/m 15,4 km/h (3 Bft)
18.12.2013 04:28 5,0 C 3,9 C 88 % 1019,2 hPa 0,0 l/m 0 min 0 min 0,0 UV-I 0 W/m 12,9 km/h (3 Bft)
18.12.2013 04:30 5,0 C 3,9 C 88 % 1019,2 hPa 0,0 l/m 0 min 0 min 0,0 UV-I 0 W/m 15,4 km/h (3 Bft)
18.12.2013 04:32 5,0 C 3,3 C 88 % 1019,2 hPa 0,0 l/m 0 min 0 min 0,0 UV-I 0 W/m 20,6 km/h (4 Bft)
18.12.2013 04:34 5,0 C 3,3 C 88 % 1019,1 hPa 0,0 l/m 0 min 0 min 0,0 UV-I 0 W/m 12,9 km/h (3 Bft)
18.12.2013 04:36 5,0 C 3,3 C 88 % 1019,1 hPa 0,0 l/m 0 min 0 min 0,0 UV-I 0 W/m 12,9 km/h (3 Bft)
18.12.2013 04:38 5,0 C 3,3 C 88 % 1019,1 hPa 0,0 l/m 0 min 0 min 0,0 UV-I 0 W/m 10,3 km/h (2 Bft)
18.12.2013 04:40 4,9 C 3,3 C 88 % 1019,1 hPa 0,0 l/m 0 min 0 min 0,0 UV-I 0 W/m 18,0 km/h (3 Bft)
18.12.2013 04:42 4,9 C 3,3 C 88 % 1019,0 hPa 0,0 l/m 0 min 0 min 0,0 UV-I 0 W/m 15,4 km/h (3 Bft)
18.12.2013 04:44 4,9 C 3,3 C 87 % 1019,0 hPa 0,0 l/m 0 min 0 min 0,0 UV-I 0 W/m 12,9 km/h (3 Bft)
18.12.2013 04:46 4,9 C 3,3 C 87 % 1019,1 hPa 0,0 l/m 0 min 0 min 0,0 UV-I 0 W/m 15,4 km/h (3 Bft)
18.12.2013 04:48 4,9 C 3,3 C 87 % 1019,1 hPa 0,0 l/m 0 min 0 min 0,0 UV-I 0 W/m 10,3 km/h (2 Bft)
18.12.2013 04:50 4,9 C 3,3 C 87 % 1019,1 hPa 0,0 l/m 0 min 0 min 0,0 UV-I 0 W/m 12,9 km/h (3 Bft)
18.12.2013 04:52 4,9 C 3,3 C 87 % 1019,1 hPa 0,0 l/m 0 min 0 min 0,0 UV-I 0 W/m 12,9 km/h (3 Bft)
18.12.2013 04:54 4,9 C 3,3 C 87 % 1019,0 hPa 0,0 l/m 0 min 0 min 0,0 UV-I 0 W/m 10,3 km/h (2 Bft)
18.12.2013 04:56 4,9 C 3,3 C 87 % 1019,0 hPa 0,0 l/m 0 min 0 min 0,0 UV-I 0 W/m 15,4 km/h (3 Bft)
18.12.2013 04:58 4,9 C 3,3 C 87 % 1019,0 hPa 0,0 l/m 0 min 0 min 0,0 UV-I 0 W/m 15,4 km/h (3 Bft)
18.12.2013 05:00 4,8 C 3,3 C 87 % 1019,0 hPa 0,0 l/m 0 min 0 min 0,0 UV-I 0 W/m 15,4 km/h (3 Bft)
18.12.2013 05:02 4,8 C 3,3 C 87 % 1019,0 hPa 0,0 l/m 0 min 0 min 0,0 UV-I 0 W/m 15,4 km/h (3 Bft)
18.12.2013 05:04 4,8 C 3,3 C 88 % 1019,0 hPa 0,0 l/m 0 min 0 min 0,0 UV-I 0 W/m 10,3 km/h (2 Bft)
18.12.2013 05:06 4,8 C 3,3 C 88 % 1019,0 hPa 0,0 l/m 0 min 0 min 0,0 UV-I 0 W/m 10,3 km/h (2 Bft)
18.12.2013 05:08 4,8 C 3,3 C 88 % 1019,0 hPa 0,0 l/m 0 min 0 min 0,0 UV-I 0 W/m 10,3 km/h (2 Bft)
18.12.2013 05:10 4,8 C 3,3 C 88 % 1019,0 hPa 0,0 l/m 0 min 0 min 0,0 UV-I 0 W/m 12,9 km/h (3 Bft)
18.12.2013 05:12 4,8 C 3,3 C 88 % 1019,0 hPa 0,0 l/m 0 min 0 min 0,0 UV-I 0 W/m 20,6 km/h (4 Bft)
18.12.2013 05:14 4,8 C 3,9 C 88 % 1019,0 hPa 0,0 l/m 0 min 0 min 0,0 UV-I 0 W/m 23,2 km/h (4 Bft)
18.12.2013 05:16 4,8 C 3,9 C 88 % 1018,9 hPa 0,0 l/m 0 min 0 min 0,0 UV-I 0 W/m 18,0 km/h (3 Bft)
18.12.2013 05:18 4,8 C 3,9 C 88 % 1018,9 hPa 0,0 l/m 0 min 0 min 0,0 UV-I 0 W/m 15,4 km/h (3 Bft)
18.12.2013 05:20 4,9 C 3,9 C 88 % 1018,9 hPa 0,0 l/m 0 min 0 min 0,0 UV-I 0 W/m 12,9 km/h (3 Bft)
18.12.2013 05:22 4,9 C 3,9 C 88 % 1018,9 hPa 0,0 l/m 0 min 0 min 0,0 UV-I 0 W/m 12,9 km/h (3 Bft)
18.12.2013 05:24 4,9 C 3,9 C 88 % 1018,9 hPa 0,0 l/m 0 min 0 min 0,0 UV-I 0 W/m 18,0 km/h (3 Bft)
18.12.2013 05:26 4,9 C 3,9 C 89 % 1018,9 hPa 0,0 l/m 0 min 0 min 0,0 UV-I 0 W/m 15,4 km/h (3 Bft)
18.12.2013 05:28 4,9 C 3,9 C 89 % 1018,9 hPa 0,0 l/m 0 min 0 min 0,0 UV-I 0 W/m 15,4 km/h (3 Bft)
18.12.2013 05:30 4,9 C 3,9 C 89 % 1018,9 hPa 0,0 l/m 0 min 0 min 0,0 UV-I 0 W/m 15,4 km/h (3 Bft)
18.12.2013 05:32 4,9 C 3,9 C 89 % 1018,9 hPa 0,0 l/m 0 min 0 min 0,0 UV-I 0 W/m 12,9 km/h (3 Bft)
18.12.2013 05:34 5,0 C 3,9 C 89 % 1018,9 hPa 0,0 l/m 0 min 0 min 0,0 UV-I 0 W/m 15,4 km/h (3 Bft)
18.12.2013 05:36 5,0 C 3,9 C 89 % 1019,0 hPa 0,0 l/m 0 min 0 min 0,0 UV-I 0 W/m 10,3 km/h (2 Bft)
18.12.2013 05:38 5,0 C 3,9 C 88 % 1018,9 hPa 0,0 l/m 0 min 0 min 0,0 UV-I 0 W/m 18,0 km/h (3 Bft)
18.12.2013 05:40 5,1 C 3,9 C 88 % 1018,9 hPa 0,0 l/m 0 min 0 min 0,0 UV-I 0 W/m 15,4 km/h (3 Bft)
18.12.2013 05:42 5,1 C 3,9 C 88 % 1018,9 hPa 0,0 l/m 0 min 0 min 0,0 UV-I 0 W/m 12,9 km/h (3 Bft)
18.12.2013 05:44 5,1 C 3,9 C 88 % 1018,9 hPa 0,0 l/m 0 min 0 min 0,0 UV-I 0 W/m 15,4 km/h (3 Bft)
18.12.2013 05:46 5,1 C 3,9 C 88 % 1018,9 hPa 0,0 l/m 0 min 0 min 0,0 UV-I 0 W/m 15,4 km/h (3 Bft)
18.12.2013 05:48 5,1 C 3,9 C 88 % 1018,9 hPa 0,0 l/m 0 min 0 min 0,0 UV-I 0 W/m 15,4 km/h (3 Bft)
18.12.2013 05:50 5,1 C 3,9 C 88 % 1018,9 hPa 0,0 l/m 0 min 0 min 0,0 UV-I 0 W/m 15,4 km/h (3 Bft)
18.12.2013 05:52 5,1 C 3,9 C 88 % 1018,9 hPa 0,0 l/m 0 min 0 min 0,0 UV-I 0 W/m 10,3 km/h (2 Bft)
18.12.2013 05:54 5,1 C 3,9 C 88 % 1019,0 hPa 0,0 l/m 0 min 0 min 0,0 UV-I 0 W/m 18,0 km/h (3 Bft)
18.12.2013 05:56 5,1 C 3,9 C 88 % 1018,9 hPa 0,0 l/m 0 min 0 min 0,0 UV-I 0 W/m 12,9 km/h (3 Bft)
18.12.2013 05:58 5,1 C 3,9 C 88 % 1018,9 hPa 0,0 l/m 0 min 0 min 0,0 UV-I 0 W/m 18,0 km/h (3 Bft)
18.12.2013 06:00 5,1 C 3,9 C 88 % 1018,9 hPa 0,0 l/m 0 min 0 min 0,0 UV-I 0 W/m 10,3 km/h (2 Bft)
18.12.2013 06:02 5,2 C 3,9 C 88 % 1018,8 hPa 0,0 l/m 0 min 0 min 0,0 UV-I 0 W/m 18,0 km/h (3 Bft)
18.12.2013 06:04 5,2 C 3,9 C 88 % 1018,9 hPa 0,0 l/m 0 min 0 min 0,0 UV-I 0 W/m 12,9 km/h (3 Bft)
18.12.2013 06:06 5,1 C 3,9 C 88 % 1018,9 hPa 0,0 l/m 0 min 0 min 0,0 UV-I 0 W/m 7,7 km/h (2 Bft)
18.12.2013 06:08 5,2 C 3,9 C 88 % 1018,9 hPa 0,0 l/m 0 min 0 min 0,0 UV-I 0 W/m 18,0 km/h (3 Bft)
18.12.2013 06:10 5,2 C 3,9 C 88 % 1018,9 hPa 0,0 l/m 0 min 0 min 0,0 UV-I 0 W/m 18,0 km/h (3 Bft)
18.12.2013 06:12 5,2 C 3,9 C 88 % 1018,9 hPa 0,0 l/m 0 min 0 min 0,0 UV-I 0 W/m 12,9 km/h (3 Bft)
18.12.2013 06:14 5,2 C 3,9 C 88 % 1018,8 hPa 0,0 l/m 0 min 0 min 0,0 UV-I 0 W/m 5,1 km/h (1 Bft)
18.12.2013 06:16 5,2 C 3,9 C 88 % 1018,8 hPa 0,0 l/m 0 min 0 min 0,0 UV-I 0 W/m 10,3 km/h (2 Bft)
18.12.2013 06:18 5,2 C 3,9 C 88 % 1018,8 hPa 0,0 l/m 0 min 0 min 0,0 UV-I 0 W/m 10,3 km/h (2 Bft)
18.12.2013 06:20 5,2 C 3,9 C 88 % 1018,8 hPa 0,0 l/m 0 min 0 min 0,0 UV-I 0 W/m 7,7 km/h (2 Bft)
18.12.2013 06:22 5,2 C 3,9 C 88 % 1018,8 hPa 0,0 l/m 0 min 0 min 0,0 UV-I 0 W/m 10,3 km/h (2 Bft)
18.12.2013 06:24 5,2 C 3,9 C 88 % 1018,8 hPa 0,0 l/m 0 min 0 min 0,0 UV-I 0 W/m 15,4 km/h (3 Bft)
18.12.2013 06:26 5,2 C 3,9 C 88 % 1018,9 hPa 0,0 l/m 0 min 0 min 0,0 UV-I 0 W/m 5,1 km/h (1 Bft)
18.12.2013 06:28 5,2 C 3,9 C 88 % 1018,9 hPa 0,0 l/m 0 min 0 min 0,0 UV-I 0 W/m 7,7 km/h (2 Bft)
18.12.2013 06:30 5,2 C 3,9 C 88 % 1018,9 hPa 0,0 l/m 0 min 0 min 0,0 UV-I 0 W/m 10,3 km/h (2 Bft)
18.12.2013 06:32 5,2 C 3,9 C 89 % 1018,9 hPa 0,0 l/m 0 min 0 min 0,0 UV-I 0 W/m 10,3 km/h (2 Bft)
18.12.2013 06:34 5,2 C 3,9 C 89 % 1018,9 hPa 0,0 l/m 0 min 0 min 0,0 UV-I 0 W/m 10,3 km/h (2 Bft)
18.12.2013 06:36 5,2 C 3,9 C 89 % 1018,9 hPa 0,0 l/m 0 min 0 min 0,0 UV-I 0 W/m 7,7 km/h (2 Bft)
18.12.2013 06:38 5,2 C 3,9 C 89 % 1018,9 hPa 0,0 l/m 0 min 0 min 0,0 UV-I 0 W/m 10,3 km/h (2 Bft)
18.12.2013 06:40 5,2 C 3,9 C 89 % 1018,9 hPa 0,0 l/m 0 min 0 min 0,0 UV-I 0 W/m 10,3 km/h (2 Bft)
18.12.2013 06:42 5,2 C 3,9 C 89 % 1018,8 hPa 0,0 l/m 0 min 0 min 0,0 UV-I 0 W/m 10,3 km/h (2 Bft)
18.12.2013 06:44 5,2 C 3,9 C 89 % 1018,9 hPa 0,0 l/m 0 min 0 min 0,0 UV-I 0 W/m 12,9 km/h (3 Bft)
18.12.2013 06:46 5,3 C 3,9 C 89 % 1018,8 hPa 0,0 l/m 0 min 0 min 0,0 UV-I 0 W/m 7,7 km/h (2 Bft)
18.12.2013 06:48 5,3 C 4,4 C 89 % 1018,8 hPa 0,0 l/m 0 min 0 min 0,0 UV-I 0 W/m 12,9 km/h (3 Bft)
18.12.2013 06:50 5,3 C 4,4 C 89 % 1018,8 hPa 0,0 l/m 0 min 0 min 0,0 UV-I 0 W/m 5,1 km/h (1 Bft)
18.12.2013 06:52 5,3 C 4,4 C 89 % 1018,8 hPa 0,0 l/m 0 min 0 min 0,0 UV-I 0 W/m 7,7 km/h (2 Bft)
18.12.2013 06:54 5,3 C 4,4 C 89 % 1018,8 hPa 0,0 l/m 0 min 0 min 0,0 UV-I 0 W/m 10,3 km/h (2 Bft)
18.12.2013 06:56 5,3 C 4,4 C 89 % 1018,8 hPa 0,0 l/m 0 min 0 min 0,0 UV-I 0 W/m 7,7 km/h (2 Bft)
18.12.2013 06:58 5,3 C 4,4 C 89 % 1018,9 hPa 0,0 l/m 0 min 0 min 0,0 UV-I 0 W/m 7,7 km/h (2 Bft)
18.12.2013 07:00 5,4 C 4,4 C 89 % 1019,0 hPa 0,0 l/m 0 min 0 min 0,0 UV-I 0 W/m 0,0 km/h (0 Bft)
18.12.2013 07:02 5,4 C 4,4 C 89 % 1019,0 hPa 0,0 l/m 0 min 0 min 0,0 UV-I 0 W/m 7,7 km/h (2 Bft)
18.12.2013 07:04 5,4 C 4,4 C 89 % 1019,1 hPa 0,0 l/m 0 min 0 min 0,0 UV-I 0 W/m 5,1 km/h (1 Bft)
18.12.2013 07:06 5,4 C 4,4 C 89 % 1019,0 hPa 0,0 l/m 0 min 0 min 0,0 UV-I 0 W/m 10,3 km/h (2 Bft)
18.12.2013 07:08 5,4 C 4,4 C 89 % 1019,0 hPa 0,0 l/m 0 min 0 min 0,0 UV-I 0 W/m 5,1 km/h (1 Bft)
18.12.2013 07:10 5,4 C 4,4 C 89 % 1019,0 hPa 0,0 l/m 0 min 0 min 0,0 UV-I 0 W/m 7,7 km/h (2 Bft)
18.12.2013 07:12 5,4 C 4,4 C 89 % 1019,0 hPa 0,0 l/m 0 min 0 min 0,0 UV-I 0 W/m 10,3 km/h (2 Bft)
18.12.2013 07:14 5,4 C 4,4 C 89 % 1019,0 hPa 0,0 l/m 0 min 0 min 0,0 UV-I 0 W/m 0,0 km/h (0 Bft)
18.12.2013 07:16 5,5 C 4,4 C 89 % 1019,0 hPa 0,0 l/m 0 min 0 min 0,0 UV-I 0 W/m 10,3 km/h (2 Bft)
18.12.2013 07:18 5,5 C 4,4 C 89 % 1019,1 hPa 0,0 l/m 0 min 0 min 0,0 UV-I 0 W/m 7,7 km/h (2 Bft)
18.12.2013 07:20 5,5 C 4,4 C 89 % 1019,1 hPa 0,0 l/m 0 min 0 min 0,0 UV-I 0 W/m 7,7 km/h (2 Bft)
18.12.2013 07:22 5,5 C 4,4 C 89 % 1019,1 hPa 0,0 l/m 0 min 0 min 0,0 UV-I 0 W/m 12,9 km/h (3 Bft)
18.12.2013 07:24 5,6 C 4,4 C 89 % 1019,1 hPa 0,0 l/m 0 min 0 min 0,0 UV-I 0 W/m 7,7 km/h (2 Bft)
18.12.2013 07:26 5,6 C 4,4 C 89 % 1019,1 hPa 0,0 l/m 0 min 0 min 0,0 UV-I 0 W/m 12,9 km/h (3 Bft)
18.12.2013 07:28 5,6 C 4,4 C 89 % 1019,1 hPa 0,0 l/m 0 min 0 min 0,0 UV-I 0 W/m 12,9 km/h (3 Bft)
18.12.2013 07:30 5,6 C 4,4 C 89 % 1019,1 hPa 0,0 l/m 0 min 0 min 0,0 UV-I 0 W/m 7,7 km/h (2 Bft)
18.12.2013 07:32 5,6 C 4,4 C 89 % 1019,1 hPa 0,0 l/m 0 min 0 min 0,0 UV-I 0 W/m 5,1 km/h (1 Bft)
18.12.2013 07:34 5,6 C 4,4 C 89 % 1019,1 hPa 0,0 l/m 0 min 0 min 0,0 UV-I 0 W/m 5,1 km/h (1 Bft)
18.12.2013 07:36 5,6 C 4,4 C 89 % 1019,2 hPa 0,0 l/m 0 min 0 min 0,0 UV-I 0 W/m 7,7 km/h (2 Bft)
18.12.2013 07:38 5,6 C 4,4 C 89 % 1019,1 hPa 0,0 l/m 0 min 0 min 0,0 UV-I 0 W/m 7,7 km/h (2 Bft)
18.12.2013 07:40 5,7 C 4,4 C 89 % 1019,0 hPa 0,0 l/m 0 min 0 min 0,0 UV-I 0 W/m 7,7 km/h (2 Bft)
18.12.2013 07:42 5,7 C 4,4 C 89 % 1019,0 hPa 0,0 l/m 0 min 0 min 0,0 UV-I 0 W/m 10,3 km/h (2 Bft)
18.12.2013 07:44 5,7 C 4,4 C 89 % 1019,0 hPa 0,0 l/m 0 min 0 min 0,0 UV-I 0 W/m 12,9 km/h (3 Bft)
18.12.2013 07:46 5,7 C 4,4 C 89 % 1019,0 hPa 0,0 l/m 0 min 0 min 0,0 UV-I 0 W/m 7,7 km/h (2 Bft)
18.12.2013 07:48 5,7 C 4,4 C 89 % 1019,0 hPa 0,0 l/m 0 min 0 min 0,0 UV-I 0 W/m 0,0 km/h (0 Bft)
18.12.2013 07:50 5,7 C 4,4 C 89 % 1019,0 hPa 0,0 l/m 0 min 0 min 0,0 UV-I 0 W/m 5,1 km/h (1 Bft)
18.12.2013 07:52 5,7 C 4,4 C 89 % 1019,1 hPa 0,0 l/m 0 min 0 min 0,0 UV-I 0 W/m 0,0 km/h (0 Bft)
18.12.2013 07:54 5,7 C 4,4 C 89 % 1019,1 hPa 0,0 l/m 0 min 0 min 0,0 UV-I 0 W/m 0,0 km/h (0 Bft)
18.12.2013 07:56 5,7 C 4,4 C 89 % 1019,1 hPa 0,0 l/m 0 min 0 min 0,0 UV-I 0 W/m 5,1 km/h (1 Bft)
18.12.2013 07:58 5,7 C 4,4 C 89 % 1019,0 hPa 0,0 l/m 0 min 0 min 0,0 UV-I 0 W/m 5,1 km/h (1 Bft)
18.12.2013 08:00 5,8 C 4,4 C 89 % 1019,0 hPa 0,0 l/m 0 min 0 min 0,0 UV-I 0 W/m 12,9 km/h (3 Bft)
18.12.2013 08:02 5,8 C 4,4 C 89 % 1019,0 hPa 0,0 l/m 0 min 0 min 0,0 UV-I 0 W/m 7,7 km/h (2 Bft)
18.12.2013 08:06 5,8 C 5,0 C 89 % 1019,0 hPa 0,0 l/m 0 min 0 min 0,0 UV-I 0 W/m 7,7 km/h (2 Bft)
18.12.2013 08:08 5,8 C 5,0 C 90 % 1019,0 hPa 0,0 l/m 0 min 0 min 0,0 UV-I 0 W/m 12,9 km/h (3 Bft)
18.12.2013 08:10 5,9 C 5,0 C 90 % 1019,1 hPa 0,0 l/m 0 min 0 min 0,0 UV-I 0 W/m 7,7 km/h (2 Bft)
18.12.2013 08:12 5,9 C 5,0 C 90 % 1019,0 hPa 0,0 l/m 0 min 0 min 0,0 UV-I 0 W/m 10,3 km/h (2 Bft)
18.12.2013 08:14 5,9 C 5,0 C 90 % 1019,0 hPa 0,0 l/m 0 min 0 min 0,0 UV-I 0 W/m 5,1 km/h (1 Bft)
18.12.2013 08:16 5,9 C 5,0 C 90 % 1019,0 hPa 0,0 l/m 0 min 0 min 0,0 UV-I 0 W/m 10,3 km/h (2 Bft)
18.12.2013 08:18 6,0 C 5,0 C 90 % 1019,0 hPa 0,0 l/m 0 min 0 min 0,0 UV-I 0 W/m 7,7 km/h (2 Bft)
18.12.2013 08:20 6,0 C 5,0 C 90 % 1019,0 hPa 0,0 l/m 0 min 0 min 0,0 UV-I 0 W/m 10,3 km/h (2 Bft)
18.12.2013 08:22 6,1 C 5,0 C 90 % 1019,0 hPa 0,0 l/m 0 min 0 min 0,0 UV-I 0 W/m 10,3 km/h (2 Bft)
18.12.2013 08:24 6,1 C 5,0 C 90 % 1019,0 hPa 0,0 l/m 0 min 0 min 0,0 UV-I 0 W/m 7,7 km/h (2 Bft)
18.12.2013 08:26 6,1 C 5,0 C 90 % 1019,1 hPa 0,0 l/m 0 min 0 min 0,0 UV-I 0 W/m 0,0 km/h (0 Bft)
18.12.2013 08:28 6,2 C 5,0 C 90 % 1019,1 hPa 0,0 l/m 0 min 0 min 0,0 UV-I 0 W/m 7,7 km/h (2 Bft)
18.12.2013 08:30 6,2 C 5,0 C 90 % 1019,1 hPa 0,0 l/m 0 min 0 min 0,0 UV-I 0 W/m 5,1 km/h (1 Bft)
18.12.2013 08:32 6,2 C 5,0 C 91 % 1019,1 hPa 0,0 l/m 0 min 0 min 0,0 UV-I 0 W/m 10,3 km/h (2 Bft)
18.12.2013 08:34 6,3 C 5,0 C 91 % 1019,0 hPa 0,0 l/m 0 min 0 min 0,0 UV-I 0 W/m 5,1 km/h (1 Bft)
18.12.2013 08:36 6,3 C 5,0 C 90 % 1019,0 hPa 0,0 l/m 0 min 0 min 0,0 UV-I 0 W/m 5,1 km/h (1 Bft)
18.12.2013 08:38 6,3 C 5,0 C 90 % 1019,0 hPa 0,0 l/m 0 min 0 min 0,0 UV-I 0 W/m 0,0 km/h (0 Bft)
18.12.2013 08:40 6,4 C 5,0 C 90 % 1019,0 hPa 0,0 l/m 0 min 0 min 0,0 UV-I 0 W/m 7,7 km/h (2 Bft)
18.12.2013 08:42 6,4 C 5,0 C 90 % 1019,1 hPa 0,0 l/m 0 min 0 min 0,0 UV-I 0 W/m 7,7 km/h (2 Bft)
18.12.2013 08:44 6,4 C 5,6 C 90 % 1019,2 hPa 0,0 l/m 0 min 0 min 0,0 UV-I 0 W/m 5,1 km/h (1 Bft)
18.12.2013 08:46 6,4 C 5,6 C 90 % 1019,2 hPa 0,0 l/m 0 min 0 min 0,0 UV-I 0 W/m 2,6 km/h (1 Bft)
18.12.2013 08:48 6,4 C 5,6 C 90 % 1019,1 hPa 0,0 l/m 0 min 0 min 0,0 UV-I 0 W/m 0,0 km/h (0 Bft)
18.12.2013 08:50 6,4 C 5,6 C 90 % 1019,1 hPa 0,0 l/m 0 min 0 min 0,0 UV-I 0 W/m 7,7 km/h (2 Bft)
18.12.2013 08:52 6,5 C 5,6 C 91 % 1019,1 hPa 0,0 l/m 0 min 0 min 0,0 UV-I 0 W/m 0,0 km/h (0 Bft)
18.12.2013 08:54 6,5 C 5,6 C 91 % 1019,2 hPa 0,0 l/m 0 min 0 min 0,0 UV-I 0 W/m 5,1 km/h (1 Bft)
18.12.2013 08:56 6,6 C 5,6 C 90 % 1019,2 hPa 0,0 l/m 0 min 0 min 0,0 UV-I 0 W/m 0,0 km/h (0 Bft)
18.12.2013 08:58 6,6 C 5,6 C 90 % 1019,2 hPa 0,0 l/m 0 min 0 min 0,0 UV-I 5 W/m 5,1 km/h (1 Bft)
18.12.2013 09:00 6,6 C 5,6 C 90 % 1019,2 hPa 0,0 l/m 0 min 0 min 0,0 UV-I 5 W/m 0,0 km/h (0 Bft)
18.12.2013 09:02 6,6 C 5,6 C 90 % 1019,2 hPa 0,0 l/m 0 min 0 min 0,0 UV-I 5 W/m 0,0 km/h (0 Bft)
18.12.2013 09:06 6,7 C 5,6 C 90 % 1019,1 hPa 0,0 l/m 0 min 0 min 0,0 UV-I 7 W/m 2,6 km/h (1 Bft)
18.12.2013 09:08 6,7 C 5,6 C 90 % 1019,2 hPa 0,0 l/m 0 min 0 min 0,0 UV-I 11 W/m 10,3 km/h (2 Bft)
18.12.2013 09:10 6,7 C 5,6 C 90 % 1019,2 hPa 0,0 l/m 0 min 0 min 0,0 UV-I 12 W/m 0,0 km/h (0 Bft)
18.12.2013 09:12 6,7 C 5,6 C 90 % 1019,2 hPa 0,0 l/m 0 min 0 min 0,0 UV-I 12 W/m 0,0 km/h (0 Bft)
18.12.2013 09:14 6,7 C 5,6 C 90 % 1019,2 hPa 0,0 l/m 0 min 0 min 0,0 UV-I 12 W/m 0,0 km/h (0 Bft)
18.12.2013 09:16 6,7 C 5,6 C 90 % 1019,3 hPa 0,0 l/m 0 min 0 min 0,0 UV-I 11 W/m 0,0 km/h (0 Bft)
18.12.2013 09:18 6,7 C 5,6 C 90 % 1019,3 hPa 0,0 l/m 0 min 0 min 0,0 UV-I 12 W/m 0,0 km/h (0 Bft)
18.12.2013 09:20 6,8 C 5,6 C 90 % 1019,3 hPa 0,0 l/m 0 min 0 min 0,0 UV-I 14 W/m 0,0 km/h (0 Bft)
18.12.2013 09:22 6,8 C 5,6 C 90 % 1019,2 hPa 0,0 l/m 0 min 0 min 0,0 UV-I 16 W/m 0,0 km/h (0 Bft)
18.12.2013 09:24 6,8 C 5,6 C 90 % 1019,2 hPa 0,0 l/m 0 min 0 min 0,0 UV-I 23 W/m 0,0 km/h (0 Bft)
18.12.2013 09:26 6,8 C 5,6 C 90 % 1019,2 hPa 0,0 l/m 0 min 0 min 0,0 UV-I 28 W/m 0,0 km/h (0 Bft)
18.12.2013 09:28 6,8 C 5,6 C 90 % 1019,2 hPa 0,0 l/m 0 min 0 min 0,0 UV-I 32 W/m 0,0 km/h (0 Bft)
18.12.2013 09:30 6,8 C 5,6 C 90 % 1019,2 hPa 0,0 l/m 0 min 0 min 0,0 UV-I 33 W/m 0,0 km/h (0 Bft)
18.12.2013 09:32 6,8 C 5,6 C 90 % 1019,2 hPa 0,0 l/m 0 min 0 min 0,0 UV-I 33 W/m 5,1 km/h (1 Bft)
18.12.2013 09:34 6,9 C 5,6 C 90 % 1019,3 hPa 0,0 l/m 0 min 0 min 0,0 UV-I 40 W/m 0,0 km/h (0 Bft)
18.12.2013 09:36 6,9 C 5,6 C 90 % 1019,2 hPa 0,0 l/m 0 min 0 min 0,0 UV-I 40 W/m 2,6 km/h (1 Bft)
18.12.2013 09:38 6,9 C 6,1 C 90 % 1019,2 hPa 0,0 l/m 0 min 0 min 0,0 UV-I 42 W/m 0,0 km/h (0 Bft)
18.12.2013 09:40 6,9 C 6,1 C 90 % 1019,2 hPa 0,0 l/m 0 min 0 min 0,0 UV-I 56 W/m 0,0 km/h (0 Bft)
18.12.2013 09:42 6,9 C 6,1 C 90 % 1019,2 hPa 0,0 l/m 0 min 0 min 0,0 UV-I 54 W/m 2,6 km/h (1 Bft)
18.12.2013 09:44 7,0 C 6,1 C 91 % 1019,3 hPa 0,0 l/m 0 min 0 min 0,0 UV-I 56 W/m 0,0 km/h (0 Bft)
18.12.2013 09:46 7,1 C 6,1 C 91 % 1019,2 hPa 0,0 l/m 0 min 0 min 0,0 UV-I 47 W/m 0,0 km/h (0 Bft)
18.12.2013 09:48 7,1 C 6,7 C 91 % 1019,3 hPa 0,0 l/m 0 min 0 min 0,0 UV-I 46 W/m 0,0 km/h (0 Bft)
18.12.2013 09:50 7,1 C 6,7 C 91 % 1019,3 hPa 0,0 l/m 0 min 0 min 0,0 UV-I 58 W/m 0,0 km/h (0 Bft)
18.12.2013 09:52 7,2 C 6,7 C 91 % 1019,3 hPa 0,0 l/m 2 min 0 min 0,0 UV-I 77 W/m 0,0 km/h (0 Bft)
18.12.2013 09:56 7,4 C 6,7 C 95 % 1019,3 hPa 0,0 l/m 2 min 0 min 0,0 UV-I 102 W/m 7,7 km/h (2 Bft)
18.12.2013 09:58 7,7 C 6,7 C 91 % 1019,4 hPa 0,0 l/m 2 min 0 min 0,0 UV-I 128 W/m 10,3 km/h (2 Bft)
18.12.2013 10:00 7,9 C 7,2 C 91 % 1019,3 hPa 0,0 l/m 2 min 0 min 0,0 UV-I 90 W/m 0,0 km/h (0 Bft)
18.12.2013 10:02 8,1 C 7,2 C 90 % 1019,3 hPa 0,0 l/m 0 min 0 min 0,0 UV-I 76 W/m 15,4 km/h (3 Bft)
18.12.2013 10:06 8,4 C 7,2 C 89 % 1019,3 hPa 0,0 l/m 0 min 0 min 0,0 UV-I 81 W/m 10,3 km/h (2 Bft)
18.12.2013 10:08 8,6 C 7,2 C 88 % 1019,3 hPa 0,0 l/m 2 min 0 min 0,0 UV-I 97 W/m 5,1 km/h (1 Bft)
18.12.2013 10:10 8,7 C 7,2 C 88 % 1019,3 hPa 0,0 l/m 2 min 0 min 0,0 UV-I 111 W/m 10,3 km/h (2 Bft)
18.12.2013 10:12 8,7 C 7,2 C 87 % 1019,4 hPa 0,0 l/m 2 min 0 min 0,0 UV-I 113 W/m 12,9 km/h (3 Bft)
18.12.2013 10:14 8,9 C 7,8 C 87 % 1019,4 hPa 0,0 l/m 2 min 0 min 0,0 UV-I 113 W/m 15,4 km/h (3 Bft)
18.12.2013 10:16 8,9 C 7,8 C 86 % 1019,4 hPa 0,0 l/m 2 min 0 min 0,0 UV-I 149 W/m 2,6 km/h (1 Bft)
18.12.2013 10:18 9,1 C 7,8 C 86 % 1019,4 hPa 0,0 l/m 2 min 0 min 0,0 UV-I 141 W/m 7,7 km/h (2 Bft)
18.12.2013 10:20 9,2 C 7,8 C 86 % 1019,5 hPa 0,0 l/m 2 min 0 min 0,0 UV-I 142 W/m 7,7 km/h (2 Bft)
18.12.2013 10:22 9,2 C 8,3 C 85 % 1019,4 hPa 0,0 l/m 2 min 0 min 0,0 UV-I 163 W/m 7,7 km/h (2 Bft)
18.12.2013 10:24 9,3 C 8,3 C 85 % 1019,5 hPa 0,0 l/m 2 min 0 min 0,0 UV-I 146 W/m 18,0 km/h (3 Bft)
18.12.2013 10:26 9,4 C 8,3 C 85 % 1019,4 hPa 0,0 l/m 2 min 0 min 0,0 UV-I 111 W/m 20,6 km/h (4 Bft)
18.12.2013 10:28 9,5 C 8,3 C 85 % 1019,3 hPa 0,0 l/m 0 min 0 min 0,0 UV-I 100 W/m 15,4 km/h (3 Bft)
18.12.2013 10:30 9,5 C 8,3 C 84 % 1019,4 hPa 0,0 l/m 0 min 0 min 0,0 UV-I 97 W/m 12,9 km/h (3 Bft)
18.12.2013 10:32 9,6 C 8,3 C 84 % 1019,3 hPa 0,0 l/m 0 min 0 min 0,0 UV-I 98 W/m 15,4 km/h (3 Bft)
18.12.2013 10:34 9,6 C 8,3 C 84 % 1019,3 hPa 0,0 l/m 0 min 0 min 0,0 UV-I 102 W/m 15,4 km/h (3 Bft)
18.12.2013 10:36 9,6 C 8,3 C 84 % 1019,3 hPa 0,0 l/m 0 min 0 min 0,0 UV-I 95 W/m 15,4 km/h (3 Bft)
18.12.2013 10:38 9,6 C 8,3 C 84 % 1019,3 hPa 0,0 l/m 0 min 0 min 0,0 UV-I 88 W/m 12,9 km/h (3 Bft)
18.12.2013 10:40 9,7 C 8,3 C 84 % 1019,3 hPa 0,0 l/m 0 min 0 min 0,0 UV-I 84 W/m 10,3 km/h (2 Bft)
18.12.2013 10:42 9,7 C 8,3 C 84 % 1019,3 hPa 0,0 l/m 0 min 0 min 0,0 UV-I 86 W/m 18,0 km/h (3 Bft)
18.12.2013 10:44 9,7 C 8,3 C 84 % 1019,3 hPa 0,0 l/m 0 min 0 min 0,0 UV-I 93 W/m 25,7 km/h (4 Bft)
18.12.2013 10:46 9,6 C 8,3 C 84 % 1019,3 hPa 0,0 l/m 0 min 0 min 0,0 UV-I 88 W/m 12,9 km/h (3 Bft)
18.12.2013 10:48 9,6 C 8,3 C 84 % 1019,3 hPa 0,0 l/m 0 min 0 min 0,0 UV-I 98 W/m 10,3 km/h (2 Bft)
18.12.2013 10:50 9,6 C 8,3 C 84 % 1019,2 hPa 0,0 l/m 2 min 0 min 0,0 UV-I 142 W/m 12,9 km/h (3 Bft)
18.12.2013 10:52 9,6 C 8,3 C 84 % 1019,2 hPa 0,0 l/m 0 min 0 min 0,0 UV-I 111 W/m 20,6 km/h (4 Bft)
18.12.2013 10:54 9,7 C 8,3 C 84 % 1019,2 hPa 0,0 l/m 0 min 0 min 0,0 UV-I 98 W/m 18,0 km/h (3 Bft)
18.12.2013 10:56 9,7 C 8,3 C 84 % 1019,2 hPa 0,0 l/m 0 min 0 min 0,0 UV-I 91 W/m 10,3 km/h (2 Bft)
18.12.2013 10:58 9,7 C 8,3 C 84 % 1019,2 hPa 0,0 l/m 0 min 0 min 0,0 UV-I 97 W/m 18,0 km/h (3 Bft)
18.12.2013 11:00 9,7 C 8,3 C 84 % 1019,2 hPa 0,0 l/m 0 min 0 min 0,0 UV-I 121 W/m 7,7 km/h (2 Bft)
18.12.2013 11:02 9,7 C 8,3 C 84 % 1019,2 hPa 0,0 l/m 0 min 0 min 0,0 UV-I 123 W/m 18,0 km/h (3 Bft)
18.12.2013 11:06 9,8 C 8,3 C 83 % 1019,2 hPa 0,0 l/m 2 min 0 min 0,0 UV-I 172 W/m 30,9 km/h (5 Bft)
18.12.2013 11:08 9,8 C 8,9 C 83 % 1019,1 hPa 0,0 l/m 2 min 0 min 0,0 UV-I 156 W/m 12,9 km/h (3 Bft)
18.12.2013 11:10 9,8 C 8,9 C 83 % 1019,1 hPa 0,0 l/m 2 min 0 min 0,0 UV-I 162 W/m 10,3 km/h (2 Bft)
18.12.2013 11:12 9,9 C 8,9 C 83 % 1019,1 hPa 0,0 l/m 2 min 0 min 0,0 UV-I 176 W/m 7,7 km/h (2 Bft)
18.12.2013 11:14 9,9 C 8,9 C 83 % 1019,0 hPa 0,0 l/m 2 min 0 min 0,0 UV-I 211 W/m 10,3 km/h (2 Bft)
18.12.2013 11:16 10,0 C 8,9 C 83 % 1019,1 hPa 0,0 l/m 2 min 0 min 0,0 UV-I 223 W/m 12,9 km/h (3 Bft)
18.12.2013 11:18 10,0 C 8,9 C 83 % 1019,1 hPa 0,0 l/m 2 min 0 min 0,0 UV-I 213 W/m 10,3 km/h (2 Bft)
18.12.2013 11:20 10,1 C 8,9 C 83 % 1019,0 hPa 0,0 l/m 2 min 0 min 0,0 UV-I 160 W/m 15,4 km/h (3 Bft)
18.12.2013 11:22 10,1 C 8,9 C 82 % 1019,0 hPa 0,0 l/m 2 min 0 min 0,0 UV-I 167 W/m 18,0 km/h (3 Bft)
18.12.2013 11:24 10,1 C 8,9 C 82 % 1019,1 hPa 0,0 l/m 2 min 0 min 0,0 UV-I 197 W/m 18,0 km/h (3 Bft)
18.12.2013 11:26 10,1 C 8,9 C 82 % 1019,0 hPa 0,0 l/m 2 min 0 min 0,0 UV-I 185 W/m 15,4 km/h (3 Bft)
18.12.2013 11:28 10,1 C 8,9 C 82 % 1018,9 hPa 0,0 l/m 2 min 0 min 0,0 UV-I 185 W/m 0,0 km/h (0 Bft)
18.12.2013 11:30 10,1 C 8,9 C 82 % 1018,9 hPa 0,0 l/m 2 min 0 min 0,0 UV-I 193 W/m 15,4 km/h (3 Bft)
18.12.2013 11:32 10,1 C 8,9 C 82 % 1018,9 hPa 0,0 l/m 2 min 0 min 0,0 UV-I 204 W/m 7,7 km/h (2 Bft)
18.12.2013 11:34 10,1 C 8,9 C 82 % 1018,9 hPa 0,0 l/m 2 min 0 min 0,0 UV-I 176 W/m 18,0 km/h (3 Bft)
18.12.2013 11:36 10,2 C 8,9 C 82 % 1018,8 hPa 0,0 l/m 2 min 0 min 0,0 UV-I 197 W/m 23,2 km/h (4 Bft)
18.12.2013 11:38 10,2 C 8,9 C 82 % 1018,9 hPa 0,0 l/m 2 min 0 min 0,0 UV-I 211 W/m 15,4 km/h (3 Bft)
18.12.2013 11:40 10,2 C 8,9 C 81 % 1018,8 hPa 0,0 l/m 2 min 0 min 0,0 UV-I 156 W/m 18,0 km/h (3 Bft)
18.12.2013 11:42 10,2 C 8,9 C 81 % 1018,8 hPa 0,0 l/m 2 min 0 min 0,0 UV-I 148 W/m 12,9 km/h (3 Bft)
18.12.2013 11:44 10,2 C 8,9 C 81 % 1018,7 hPa 0,0 l/m 2 min 0 min 0,0 UV-I 162 W/m 23,2 km/h (4 Bft)
18.12.2013 11:46 10,2 C 8,9 C 81 % 1018,7 hPa 0,0 l/m 2 min 0 min 0,0 UV-I 162 W/m 12,9 km/h (3 Bft)
18.12.2013 11:48 10,2 C 8,9 C 81 % 1018,6 hPa 0,0 l/m 2 min 0 min 0,0 UV-I 151 W/m 18,0 km/h (3 Bft)
18.12.2013 11:50 10,2 C 8,9 C 81 % 1018,5 hPa 0,0 l/m 2 min 0 min 0,0 UV-I 160 W/m 15,4 km/h (3 Bft)
18.12.2013 11:52 10,2 C 8,9 C 81 % 1018,6 hPa 0,0 l/m 2 min 0 min 0,0 UV-I 186 W/m 5,1 km/h (1 Bft)
18.12.2013 11:54 10,2 C 8,9 C 81 % 1018,6 hPa 0,0 l/m 2 min 0 min 0,0 UV-I 178 W/m 23,2 km/h (4 Bft)
18.12.2013 11:56 10,2 C 8,9 C 81 % 1018,4 hPa 0,0 l/m 0 min 0 min 0,0 UV-I 139 W/m 18,0 km/h (3 Bft)
18.12.2013 11:58 10,1 C 8,9 C 81 % 1018,5 hPa 0,0 l/m 2 min 0 min 0,0 UV-I 148 W/m 12,9 km/h (3 Bft)
18.12.2013 12:00 10,1 C 8,9 C 80 % 1018,3 hPa 0,0 l/m 2 min 0 min 0,0 UV-I 151 W/m 7,7 km/h (2 Bft)
18.12.2013 12:02 10,1 C 8,9 C 80 % 1018,4 hPa 0,0 l/m 2 min 0 min 0,0 UV-I 158 W/m 20,6 km/h (4 Bft)
18.12.2013 12:06 10,0 C 8,9 C 80 % 1018,3 hPa 0,0 l/m 0 min 0 min 0,0 UV-I 142 W/m 20,6 km/h (4 Bft)
18.12.2013 12:08 10,0 C 8,9 C 80 % 1018,3 hPa 0,0 l/m 0 min 0 min 0,0 UV-I 130 W/m 15,4 km/h (3 Bft)
18.12.2013 12:10 9,9 C 8,9 C 80 % 1018,3 hPa 0,0 l/m 0 min 0 min 0,0 UV-I 137 W/m 18,0 km/h (3 Bft)
18.12.2013 12:12 9,9 C 8,9 C 80 % 1018,2 hPa 0,0 l/m 0 min 0 min 0,0 UV-I 144 W/m 23,2 km/h (4 Bft)
18.12.2013 12:14 9,9 C 8,9 C 80 % 1018,2 hPa 0,0 l/m 0 min 0 min 0,0 UV-I 142 W/m 18,0 km/h (3 Bft)
18.12.2013 12:16 9,9 C 8,9 C 80 % 1018,2 hPa 0,0 l/m 0 min 0 min 0,0 UV-I 146 W/m 15,4 km/h (3 Bft)
18.12.2013 12:18 9,9 C 8,9 C 80 % 1018,2 hPa 0,0 l/m 0 min 0 min 0,0 UV-I 142 W/m 18,0 km/h (3 Bft)
18.12.2013 12:20 9,9 C 8,3 C 80 % 1018,1 hPa 0,0 l/m 0 min 0 min 0,0 UV-I 148 W/m 20,6 km/h (4 Bft)
18.12.2013 12:22 9,9 C 8,9 C 81 % 1018,2 hPa 0,0 l/m 0 min 0 min 0,0 UV-I 146 W/m 10,3 km/h (2 Bft)
18.12.2013 12:24 9,9 C 8,9 C 80 % 1018,1 hPa 0,0 l/m 2 min 0 min 0,0 UV-I 149 W/m 18,0 km/h (3 Bft)
18.12.2013 12:26 9,9 C 8,9 C 81 % 1018,2 hPa 0,0 l/m 0 min 0 min 0,0 UV-I 146 W/m 15,4 km/h (3 Bft)
18.12.2013 12:28 9,9 C 8,9 C 80 % 1018,1 hPa 0,0 l/m 2 min 0 min 0,0 UV-I 153 W/m 12,9 km/h (3 Bft)
18.12.2013 12:30 9,9 C 8,9 C 81 % 1018,1 hPa 0,0 l/m 2 min 0 min 0,0 UV-I 151 W/m 10,3 km/h (2 Bft)
18.12.2013 12:32 9,9 C 8,9 C 81 % 1018,0 hPa 0,0 l/m 2 min 0 min 0,0 UV-I 158 W/m 7,7 km/h (2 Bft)
18.12.2013 12:34 9,9 C 8,9 C 81 % 1018,0 hPa 0,0 l/m 2 min 0 min 0,0 UV-I 155 W/m 2,6 km/h (1 Bft)
18.12.2013 12:36 9,9 C 8,9 C 81 % 1018,0 hPa 0,0 l/m 2 min 0 min 0,0 UV-I 153 W/m 18,0 km/h (3 Bft)
18.12.2013 12:38 9,9 C 8,9 C 81 % 1018,0 hPa 0,0 l/m 0 min 0 min 0,0 UV-I 142 W/m 7,7 km/h (2 Bft)
18.12.2013 12:40 9,9 C 8,9 C 81 % 1018,0 hPa 0,0 l/m 0 min 0 min 0,0 UV-I 142 W/m 25,7 km/h (4 Bft)
18.12.2013 12:42 9,9 C 8,9 C 81 % 1017,9 hPa 0,0 l/m 0 min 0 min 0,0 UV-I 137 W/m 10,3 km/h (2 Bft)
18.12.2013 12:44 9,9 C 8,9 C 81 % 1017,9 hPa 0,0 l/m 0 min 0 min 0,0 UV-I 130 W/m 10,3 km/h (2 Bft)
18.12.2013 12:46 9,9 C 8,9 C 81 % 1017,8 hPa 0,0 l/m 0 min 0 min 0,0 UV-I 127 W/m 18,0 km/h (3 Bft)
18.12.2013 12:48 9,9 C 8,9 C 81 % 1017,7 hPa 0,0 l/m 0 min 0 min 0,0 UV-I 118 W/m 2,6 km/h (1 Bft)
18.12.2013 12:50 9,9 C 8,9 C 81 % 1017,8 hPa 0,0 l/m 0 min 0 min 0,0 UV-I 114 W/m 10,3 km/h (2 Bft)
18.12.2013 12:52 9,8 C 8,9 C 81 % 1017,8 hPa 0,0 l/m 0 min 0 min 0,0 UV-I 109 W/m 12,9 km/h (3 Bft)
18.12.2013 12:54 9,8 C 8,9 C 81 % 1017,8 hPa 0,0 l/m 0 min 0 min 0,0 UV-I 104 W/m 12,9 km/h (3 Bft)
18.12.2013 12:56 9,8 C 8,9 C 81 % 1017,8 hPa 0,0 l/m 0 min 0 min 0,0 UV-I 102 W/m 18,0 km/h (3 Bft)
18.12.2013 12:58 9,8 C 8,3 C 81 % 1017,9 hPa 0,0 l/m 0 min 0 min 0,0 UV-I 102 W/m 12,9 km/h (3 Bft)
18.12.2013 13:00 9,8 C 8,3 C 81 % 1017,8 hPa 0,0 l/m 0 min 0 min 0,0 UV-I 102 W/m 10,3 km/h (2 Bft)
18.12.2013 13:02 9,7 C 8,9 C 81 % 1017,7 hPa 0,0 l/m 0 min 0 min 0,0 UV-I 104 W/m 10,3 km/h (2 Bft)
18.12.2013 13:06 9,7 C 8,3 C 81 % 1017,6 hPa 0,0 l/m 0 min 0 min 0,0 UV-I 105 W/m 10,3 km/h (2 Bft)
18.12.2013 13:08 9,7 C 8,3 C 81 % 1017,6 hPa 0,0 l/m 0 min 0 min 0,0 UV-I 105 W/m 10,3 km/h (2 Bft)
18.12.2013 13:10 9,7 C 8,9 C 81 % 1017,6 hPa 0,0 l/m 0 min 0 min 0,0 UV-I 104 W/m 7,7 km/h (2 Bft)
18.12.2013 13:12 9,7 C 8,3 C 81 % 1017,6 hPa 0,0 l/m 0 min 0 min 0,0 UV-I 104 W/m 25,7 km/h (4 Bft)
18.12.2013 13:14 9,7 C 8,3 C 81 % 1017,6 hPa 0,0 l/m 0 min 0 min 0,0 UV-I 104 W/m 20,6 km/h (4 Bft)
18.12.2013 13:16 9,7 C 8,3 C 81 % 1017,5 hPa 0,0 l/m 0 min 0 min 0,0 UV-I 107 W/m 15,4 km/h (3 Bft)
18.12.2013 13:18 9,7 C 8,3 C 81 % 1017,5 hPa 0,0 l/m 0 min 0 min 0,0 UV-I 113 W/m 10,3 km/h (2 Bft)
18.12.2013 13:20 9,7 C 8,3 C 81 % 1017,5 hPa 0,0 l/m 0 min 0 min 0,0 UV-I 118 W/m 20,6 km/h (4 Bft)
18.12.2013 13:22 9,7 C 8,9 C 81 % 1017,5 hPa 0,0 l/m 0 min 0 min 0,0 UV-I 120 W/m 15,4 km/h (3 Bft)
18.12.2013 13:24 9,7 C 8,9 C 81 % 1017,4 hPa 0,0 l/m 0 min 0 min 0,0 UV-I 120 W/m 7,7 km/h (2 Bft)
18.12.2013 13:26 9,7 C 8,9 C 81 % 1017,4 hPa 0,0 l/m 0 min 0 min 0,0 UV-I 118 W/m 15,4 km/h (3 Bft)
18.12.2013 13:28 9,7 C 8,9 C 81 % 1017,4 hPa 0,0 l/m 0 min 0 min 0,0 UV-I 114 W/m 10,3 km/h (2 Bft)
18.12.2013 13:30 9,7 C 8,9 C 81 % 1017,4 hPa 0,0 l/m 0 min 0 min 0,0 UV-I 111 W/m 7,7 km/h (2 Bft)
18.12.2013 13:32 9,7 C 8,3 C 81 % 1017,5 hPa 0,0 l/m 0 min 0 min 0,0 UV-I 107 W/m 18,0 km/h (3 Bft)
18.12.2013 13:34 9,7 C 8,3 C 81 % 1017,5 hPa 0,0 l/m 0 min 0 min 0,0 UV-I 105 W/m 15,4 km/h (3 Bft)
18.12.2013 13:36 9,7 C 8,3 C 81 % 1017,4 hPa 0,0 l/m 0 min 0 min 0,0 UV-I 105 W/m 7,7 km/h (2 Bft)
18.12.2013 13:38 9,7 C 8,3 C 81 % 1017,5 hPa 0,0 l/m 0 min 0 min 0,0 UV-I 107 W/m 18,0 km/h (3 Bft)
18.12.2013 13:40 9,7 C 8,9 C 81 % 1017,4 hPa 0,0 l/m 0 min 0 min 0,0 UV-I 109 W/m 5,1 km/h (1 Bft)
18.12.2013 13:42 9,7 C 8,9 C 81 % 1017,4 hPa 0,0 l/m 0 min 0 min 0,0 UV-I 114 W/m 0,0 km/h (0 Bft)
18.12.2013 13:44 9,7 C 8,9 C 81 % 1017,4 hPa 0,0 l/m 0 min 0 min 0,0 UV-I 118 W/m 7,7 km/h (2 Bft)
18.12.2013 13:46 9,7 C 8,9 C 81 % 1017,3 hPa 0,0 l/m 0 min 0 min 0,0 UV-I 118 W/m 10,3 km/h (2 Bft)
18.12.2013 13:48 9,7 C 8,9 C 81 % 1017,3 hPa 0,0 l/m 0 min 0 min 0,0 UV-I 123 W/m 7,7 km/h (2 Bft)
18.12.2013 13:50 9,8 C 8,9 C 81 % 1017,4 hPa 0,0 l/m 0 min 0 min 0,0 UV-I 125 W/m 7,7 km/h (2 Bft)
18.12.2013 13:52 9,8 C 8,9 C 81 % 1017,3 hPa 0,0 l/m 0 min 0 min 0,0 UV-I 127 W/m 10,3 km/h (2 Bft)
18.12.2013 13:54 9,8 C 8,9 C 82 % 1017,3 hPa 0,0 l/m 0 min 0 min 0,0 UV-I 123 W/m 10,3 km/h (2 Bft)
18.12.2013 13:56 9,8 C 8,9 C 82 % 1017,2 hPa 0,0 l/m 0 min 0 min 0,0 UV-I 125 W/m 10,3 km/h (2 Bft)
18.12.2013 13:58 9,8 C 8,9 C 82 % 1017,2 hPa 0,0 l/m 0 min 0 min 0,0 UV-I 123 W/m 10,3 km/h (2 Bft)
18.12.2013 14:00 9,8 C 8,9 C 82 % 1017,1 hPa 0,0 l/m 2 min 0 min 0,0 UV-I 127 W/m 10,3 km/h (2 Bft)
18.12.2013 14:02 9,8 C 8,9 C 81 % 1017,1 hPa 0,0 l/m 2 min 0 min 0,0 UV-I 128 W/m 5,1 km/h (1 Bft)
18.12.2013 14:06 9,8 C 8,9 C 82 % 1017,0 hPa 0,0 l/m 2 min 0 min 0,0 UV-I 123 W/m 12,9 km/h (3 Bft)
18.12.2013 14:08 9,8 C 8,9 C 81 % 1016,9 hPa 0,0 l/m 2 min 0 min 0,0 UV-I 134 W/m 10,3 km/h (2 Bft)
18.12.2013 14:10 9,9 C 8,9 C 81 % 1016,8 hPa 0,0 l/m 2 min 0 min 0,0 UV-I 169 W/m 10,3 km/h (2 Bft)
18.12.2013 14:12 9,9 C 8,9 C 81 % 1016,8 hPa 0,0 l/m 2 min 0 min 0,0 UV-I 160 W/m 12,9 km/h (3 Bft)
18.12.2013 14:14 9,9 C 8,9 C 80 % 1016,7 hPa 0,0 l/m 2 min 0 min 0,0 UV-I 148 W/m 20,6 km/h (4 Bft)
18.12.2013 14:16 10,0 C 8,9 C 80 % 1016,8 hPa 0,0 l/m 2 min 0 min 0,0 UV-I 125 W/m 10,3 km/h (2 Bft)
18.12.2013 14:18 10,0 C 8,9 C 80 % 1016,7 hPa 0,0 l/m 2 min 0 min 0,0 UV-I 130 W/m 0,0 km/h (0 Bft)
18.12.2013 14:20 10,0 C 8,9 C 80 % 1016,7 hPa 0,0 l/m 2 min 0 min 0,0 UV-I 139 W/m 15,4 km/h (3 Bft)
18.12.2013 14:22 10,0 C 8,9 C 80 % 1016,7 hPa 0,0 l/m 2 min 0 min 0,0 UV-I 162 W/m 0,0 km/h (0 Bft)
18.12.2013 14:24 10,0 C 8,9 C 80 % 1016,7 hPa 0,0 l/m 2 min 0 min 0,0 UV-I 179 W/m 10,3 km/h (2 Bft)
18.12.2013 14:26 10,1 C 8,9 C 80 % 1016,7 hPa 0,0 l/m 2 min 0 min 0,0 UV-I 183 W/m 0,0 km/h (0 Bft)
18.12.2013 14:28 10,1 C 8,9 C 80 % 1016,7 hPa 0,0 l/m 2 min 0 min 0,0 UV-I 183 W/m 10,3 km/h (2 Bft)
18.12.2013 14:30 10,2 C 9,4 C 80 % 1016,6 hPa 0,0 l/m 2 min 0 min 0,0 UV-I 169 W/m 2,6 km/h (1 Bft)
18.12.2013 14:32 10,2 C 9,4 C 80 % 1016,6 hPa 0,0 l/m 2 min 0 min 0,0 UV-I 151 W/m 0,0 km/h (0 Bft)
18.12.2013 14:34 10,2 C 9,4 C 80 % 1016,5 hPa 0,0 l/m 2 min 0 min 0,0 UV-I 121 W/m 12,9 km/h (3 Bft)
18.12.2013 14:36 10,2 C 8,9 C 79 % 1016,5 hPa 0,0 l/m 2 min 0 min 0,0 UV-I 105 W/m 10,3 km/h (2 Bft)
18.12.2013 14:38 10,2 C 8,9 C 79 % 1016,4 hPa 0,0 l/m 0 min 0 min 0,0 UV-I 98 W/m 2,6 km/h (1 Bft)
18.12.2013 14:40 10,2 C 8,9 C 79 % 1016,4 hPa 0,0 l/m 0 min 0 min 0,0 UV-I 88 W/m 2,6 km/h (1 Bft)
18.12.2013 14:42 10,1 C 8,9 C 79 % 1016,4 hPa 0,0 l/m 0 min 0 min 0,0 UV-I 83 W/m 12,9 km/h (3 Bft)
18.12.2013 14:44 10,1 C 8,9 C 79 % 1016,4 hPa 0,0 l/m 0 min 0 min 0,0 UV-I 74 W/m 2,6 km/h (1 Bft)
18.12.2013 14:46 10,0 C 8,9 C 80 % 1016,4 hPa 0,0 l/m 0 min 0 min 0,0 UV-I 70 W/m 0,0 km/h (0 Bft)
18.12.2013 14:48 9,9 C 8,9 C 80 % 1016,4 hPa 0,0 l/m 0 min 0 min 0,0 UV-I 70 W/m 7,7 km/h (2 Bft)
18.12.2013 14:50 9,9 C 8,3 C 80 % 1016,4 hPa 0,0 l/m 0 min 0 min 0,0 UV-I 70 W/m 5,1 km/h (1 Bft)
18.12.2013 14:52 9,8 C 8,3 C 80 % 1016,4 hPa 0,0 l/m 0 min 0 min 0,0 UV-I 72 W/m 10,3 km/h (2 Bft)
18.12.2013 14:54 9,8 C 8,3 C 80 % 1016,3 hPa 0,0 l/m 0 min 0 min 0,0 UV-I 74 W/m 10,3 km/h (2 Bft)
18.12.2013 14:56 9,7 C 8,3 C 81 % 1016,4 hPa 0,0 l/m 0 min 0 min 0,0 UV-I 74 W/m 18,0 km/h (3 Bft)
18.12.2013 14:58 9,7 C 8,3 C 81 % 1016,4 hPa 0,0 l/m 0 min 0 min 0,0 UV-I 74 W/m 20,6 km/h (4 Bft)
18.12.2013 15:00 9,7 C 8,3 C 81 % 1016,3 hPa 0,0 l/m 0 min 0 min 0,0 UV-I 76 W/m 7,7 km/h (2 Bft)
18.12.2013 15:02 9,7 C 8,3 C 81 % 1016,2 hPa 0,0 l/m 0 min 0 min 0,0 UV-I 76 W/m 7,7 km/h (2 Bft)
18.12.2013 15:06 9,7 C 8,3 C 81 % 1016,2 hPa 0,0 l/m 0 min 0 min 0,0 UV-I 76 W/m 12,9 km/h (3 Bft)
18.12.2013 15:08 9,6 C 8,3 C 81 % 1016,2 hPa 0,0 l/m 2 min 0 min 0,0 UV-I 76 W/m 10,3 km/h (2 Bft)
18.12.2013 15:10 9,6 C 8,3 C 81 % 1016,2 hPa 0,0 l/m 0 min 0 min 0,0 UV-I 74 W/m 10,3 km/h (2 Bft)
18.12.2013 15:12 9,6 C 8,3 C 82 % 1016,3 hPa 0,0 l/m 0 min 0 min 0,0 UV-I 69 W/m 12,9 km/h (3 Bft)
18.12.2013 15:14 9,6 C 8,3 C 82 % 1016,1 hPa 0,0 l/m 0 min 0 min 0,0 UV-I 65 W/m 0,0 km/h (0 Bft)
18.12.2013 15:16 9,6 C 8,3 C 82 % 1016,1 hPa 0,0 l/m 0 min 0 min 0,0 UV-I 62 W/m 12,9 km/h (3 Bft)
18.12.2013 15:18 9,6 C 8,3 C 82 % 1016,2 hPa 0,0 l/m 0 min 0 min 0,0 UV-I 56 W/m 12,9 km/h (3 Bft)
18.12.2013 15:20 9,6 C 8,3 C 82 % 1016,2 hPa 0,0 l/m 0 min 0 min 0,0 UV-I 51 W/m 23,2 km/h (4 Bft)
18.12.2013 15:22 9,5 C 7,8 C 82 % 1016,2 hPa 0,0 l/m 0 min 0 min 0,0 UV-I 44 W/m 12,9 km/h (3 Bft)
18.12.2013 15:24 9,5 C 7,8 C 82 % 1016,2 hPa 0,0 l/m 0 min 0 min 0,0 UV-I 40 W/m 12,9 km/h (3 Bft)
18.12.2013 15:26 9,4 C 7,8 C 82 % 1016,1 hPa 0,0 l/m 0 min 0 min 0,0 UV-I 37 W/m 10,3 km/h (2 Bft)
18.12.2013 15:28 9,4 C 7,8 C 82 % 1016,0 hPa 0,0 l/m 0 min 0 min 0,0 UV-I 35 W/m 2,6 km/h (1 Bft)
18.12.2013 15:30 9,4 C 7,8 C 82 % 1015,9 hPa 0,0 l/m 0 min 0 min 0,0 UV-I 35 W/m 12,9 km/h (3 Bft)
18.12.2013 15:32 9,4 C 7,8 C 82 % 1016,0 hPa 0,0 l/m 0 min 0 min 0,0 UV-I 33 W/m 12,9 km/h (3 Bft)
18.12.2013 15:34 9,4 C 7,8 C 82 % 1015,9 hPa 0,0 l/m 0 min 0 min 0,0 UV-I 32 W/m 7,7 km/h (2 Bft)
18.12.2013 15:36 9,3 C 7,8 C 82 % 1015,9 hPa 0,0 l/m 0 min 0 min 0,0 UV-I 32 W/m 0,0 km/h (0 Bft)
18.12.2013 15:38 9,3 C 7,8 C 82 % 1015,9 hPa 0,0 l/m 0 min 0 min 0,0 UV-I 32 W/m 0,0 km/h (0 Bft)
18.12.2013 15:40 9,3 C 7,8 C 83 % 1015,8 hPa 0,0 l/m 0 min 0 min 0,0 UV-I 32 W/m 7,7 km/h (2 Bft)
18.12.2013 15:42 9,3 C 7,8 C 83 % 1015,9 hPa 0,0 l/m 0 min 0 min 0,0 UV-I 32 W/m 5,1 km/h (1 Bft)
18.12.2013 15:44 9,3 C 7,8 C 83 % 1015,9 hPa 0,0 l/m 0 min 0 min 0,0 UV-I 32 W/m 5,1 km/h (1 Bft)
18.12.2013 15:46 9,2 C 7,8 C 83 % 1015,9 hPa 0,0 l/m 0 min 0 min 0,0 UV-I 32 W/m 5,1 km/h (1 Bft)
18.12.2013 15:48 9,2 C 7,8 C 83 % 1015,9 hPa 0,0 l/m 0 min 0 min 0,0 UV-I 30 W/m 7,7 km/h (2 Bft)
18.12.2013 15:50 9,2 C 7,8 C 83 % 1015,9 hPa 0,0 l/m 0 min 0 min 0,0 UV-I 28 W/m 0,0 km/h (0 Bft)
18.12.2013 15:52 9,2 C 7,8 C 83 % 1015,9 hPa 0,0 l/m 0 min 0 min 0,0 UV-I 26 W/m 10,3 km/h (2 Bft)
18.12.2013 15:54 9,2 C 7,2 C 83 % 1015,8 hPa 0,0 l/m 0 min 0 min 0,0 UV-I 26 W/m 0,0 km/h (0 Bft)
18.12.2013 15:56 9,2 C 7,2 C 83 % 1015,8 hPa 0,0 l/m 0 min 0 min 0,0 UV-I 26 W/m 12,9 km/h (3 Bft)
18.12.2013 15:58 9,2 C 7,2 C 83 % 1015,8 hPa 0,0 l/m 0 min 0 min 0,0 UV-I 25 W/m 0,0 km/h (0 Bft)
18.12.2013 16:00 9,1 C 7,2 C 83 % 1015,8 hPa 0,0 l/m 0 min 0 min 0,0 UV-I 23 W/m 0,0 km/h (0 Bft)
18.12.2013 16:02 9,1 C 7,2 C 83 % 1015,8 hPa 0,0 l/m 0 min 0 min 0,0 UV-I 23 W/m 0,0 km/h (0 Bft)
18.12.2013 16:06 9,1 C 7,2 C 83 % 1015,7 hPa 0,0 l/m 0 min 0 min 0,0 UV-I 25 W/m 10,3 km/h (2 Bft)
18.12.2013 16:08 9,1 C 7,2 C 84 % 1015,7 hPa 0,0 l/m 0 min 0 min 0,0 UV-I 23 W/m 5,1 km/h (1 Bft)
18.12.2013 16:10 9,0 C 7,2 C 84 % 1015,7 hPa 0,0 l/m 0 min 0 min 0,0 UV-I 21 W/m 2,6 km/h (1 Bft)
18.12.2013 16:12 9,0 C 7,2 C 84 % 1015,7 hPa 0,0 l/m 0 min 0 min 0,0 UV-I 19 W/m 0,0 km/h (0 Bft)
18.12.2013 16:14 8,9 C 7,2 C 84 % 1015,7 hPa 0,0 l/m 0 min 0 min 0,0 UV-I 16 W/m 0,0 km/h (0 Bft)
18.12.2013 16:16 8,9 C 6,7 C 84 % 1015,7 hPa 0,0 l/m 0 min 0 min 0,0 UV-I 14 W/m 0,0 km/h (0 Bft)
18.12.2013 16:18 8,8 C 6,7 C 84 % 1015,7 hPa 0,0 l/m 0 min 0 min 0,0 UV-I 11 W/m 0,0 km/h (0 Bft)
18.12.2013 16:20 8,8 C 6,7 C 84 % 1015,6 hPa 0,0 l/m 0 min 0 min 0,0 UV-I 7 W/m 0,0 km/h (0 Bft)
18.12.2013 16:22 8,8 C 6,7 C 84 % 1015,6 hPa 0,0 l/m 0 min 0 min 0,0 UV-I 5 W/m 0,0 km/h (0 Bft)
18.12.2013 16:24 8,7 C 6,7 C 84 % 1015,5 hPa 0,0 l/m 0 min 0 min 0,0 UV-I 5 W/m 0,0 km/h (0 Bft)
18.12.2013 16:26 8,7 C 6,7 C 84 % 1015,5 hPa 0,0 l/m 0 min 0 min 0,0 UV-I 0 W/m 0,0 km/h (0 Bft)
18.12.2013 16:28 8,7 C 6,1 C 84 % 1015,5 hPa 0,0 l/m 0 min 0 min 0,0 UV-I 0 W/m 0,0 km/h (0 Bft)
18.12.2013 16:30 8,7 C 6,1 C 84 % 1015,4 hPa 0,0 l/m 0 min 0 min 0,0 UV-I 0 W/m 0,0 km/h (0 Bft)
18.12.2013 16:32 8,7 C 6,1 C 85 % 1015,4 hPa 0,0 l/m 0 min 0 min 0,0 UV-I 0 W/m 0,0 km/h (0 Bft)
18.12.2013 16:34 8,7 C 6,1 C 84 % 1015,4 hPa 0,0 l/m 0 min 0 min 0,0 UV-I 0 W/m 0,0 km/h (0 Bft)
18.12.2013 16:36 8,7 C 6,1 C 84 % 1015,4 hPa 0,0 l/m 0 min 0 min 0,0 UV-I 0 W/m 0,0 km/h (0 Bft)
18.12.2013 16:38 8,6 C 6,1 C 84 % 1015,4 hPa 0,0 l/m 0 min 0 min 0,0 UV-I 0 W/m 0,0 km/h (0 Bft)
18.12.2013 16:40 8,6 C 6,1 C 84 % 1015,2 hPa 0,0 l/m 0 min 0 min 0,0 UV-I 0 W/m 7,7 km/h (2 Bft)
18.12.2013 16:42 8,6 C 6,1 C 85 % 1015,3 hPa 0,0 l/m 0 min 0 min 0,0 UV-I 0 W/m 2,6 km/h (1 Bft)
18.12.2013 16:44 8,6 C 5,6 C 85 % 1015,3 hPa 0,0 l/m 0 min 0 min 0,0 UV-I 0 W/m 0,0 km/h (0 Bft)
18.12.2013 16:46 8,5 C 5,6 C 85 % 1015,3 hPa 0,0 l/m 0 min 0 min 0,0 UV-I 0 W/m 0,0 km/h (0 Bft)
18.12.2013 16:48 8,5 C 5,6 C 85 % 1015,3 hPa 0,0 l/m 0 min 0 min 0,0 UV-I 0 W/m 0,0 km/h (0 Bft)
18.12.2013 16:50 8,4 C 5,6 C 85 % 1015,3 hPa 0,0 l/m 0 min 0 min 0,0 UV-I 0 W/m 0,0 km/h (0 Bft)
18.12.2013 16:52 8,4 C 5,6 C 85 % 1015,3 hPa 0,0 l/m 0 min 0 min 0,0 UV-I 0 W/m 0,0 km/h (0 Bft)
18.12.2013 16:54 8,4 C 5,6 C 85 % 1015,2 hPa 0,0 l/m 0 min 0 min 0,0 UV-I 0 W/m 0,0 km/h (0 Bft)
18.12.2013 16:56 8,4 C 5,6 C 85 % 1015,2 hPa 0,0 l/m 0 min 0 min 0,0 UV-I 0 W/m 0,0 km/h (0 Bft)
18.12.2013 16:58 8,3 C 5,6 C 85 % 1015,2 hPa 0,0 l/m 0 min 0 min 0,0 UV-I 0 W/m 0,0 km/h (0 Bft)
18.12.2013 17:00 8,3 C 5,0 C 85 % 1015,1 hPa 0,0 l/m 0 min 0 min 0,0 UV-I 0 W/m 0,0 km/h (0 Bft)
18.12.2013 17:02 8,3 C 5,0 C 85 % 1015,1 hPa 0,0 l/m 0 min 0 min 0,0 UV-I 0 W/m 0,0 km/h (0 Bft)
18.12.2013 17:06 8,2 C 5,0 C 85 % 1015,0 hPa 0,0 l/m 0 min 0 min 0,0 UV-I 0 W/m 0,0 km/h (0 Bft)
18.12.2013 17:08 8,2 C 5,0 C 85 % 1015,0 hPa 0,0 l/m 0 min 0 min 0,0 UV-I 0 W/m 0,0 km/h (0 Bft)
18.12.2013 17:10 8,1 C 5,0 C 86 % 1015,0 hPa 0,0 l/m 0 min 0 min 0,0 UV-I 0 W/m 7,7 km/h (2 Bft)
18.12.2013 17:12 8,1 C 5,0 C 86 % 1014,9 hPa 0,0 l/m 0 min 0 min 0,0 UV-I 0 W/m 5,1 km/h (1 Bft)
18.12.2013 17:14 8,0 C 5,0 C 86 % 1014,8 hPa 0,0 l/m 0 min 0 min 0,0 UV-I 0 W/m 0,0 km/h (0 Bft)
18.12.2013 17:16 7,9 C 5,0 C 86 % 1014,8 hPa 0,0 l/m 0 min 0 min 0,0 UV-I 0 W/m 0,0 km/h (0 Bft)
18.12.2013 17:18 7,9 C 5,0 C 86 % 1014,8 hPa 0,0 l/m 0 min 0 min 0,0 UV-I 0 W/m 0,0 km/h (0 Bft)
18.12.2013 17:20 7,8 C 5,0 C 86 % 1014,8 hPa 0,0 l/m 0 min 0 min 0,0 UV-I 0 W/m 0,0 km/h (0 Bft)
18.12.2013 17:22 7,8 C 5,0 C 86 % 1014,9 hPa 0,0 l/m 0 min 0 min 0,0 UV-I 0 W/m 0,0 km/h (0 Bft)
18.12.2013 17:24 7,7 C 5,0 C 86 % 1014,8 hPa 0,0 l/m 0 min 0 min 0,0 UV-I 0 W/m 0,0 km/h (0 Bft)
18.12.2013 17:26 7,7 C 5,0 C 86 % 1014,8 hPa 0,0 l/m 0 min 0 min 0,0 UV-I 0 W/m 0,0 km/h (0 Bft)
18.12.2013 17:28 7,7 C 5,0 C 86 % 1014,7 hPa 0,0 l/m 0 min 0 min 0,0 UV-I 0 W/m 10,3 km/h (2 Bft)
18.12.2013 17:30 7,6 C 5,0 C 86 % 1014,6 hPa 0,0 l/m 0 min 0 min 0,0 UV-I 0 W/m 2,6 km/h (1 Bft)
18.12.2013 17:32 7,6 C 5,0 C 86 % 1014,6 hPa 0,0 l/m 0 min 0 min 0,0 UV-I 0 W/m 5,1 km/h (1 Bft)
18.12.2013 17:34 7,5 C 5,0 C 87 % 1014,5 hPa 0,0 l/m 0 min 0 min 0,0 UV-I 0 W/m 7,7 km/h (2 Bft)
18.12.2013 17:36 7,5 C 5,0 C 87 % 1014,5 hPa 0,0 l/m 0 min 0 min 0,0 UV-I 0 W/m 2,6 km/h (1 Bft)
18.12.2013 17:38 7,4 C 5,0 C 87 % 1014,5 hPa 0,0 l/m 0 min 0 min 0,0 UV-I 0 W/m 2,6 km/h (1 Bft)
18.12.2013 17:40 7,4 C 5,0 C 87 % 1014,5 hPa 0,0 l/m 0 min 0 min 0,0 UV-I 0 W/m 5,1 km/h (1 Bft)
18.12.2013 17:42 7,4 C 5,0 C 87 % 1014,5 hPa 0,0 l/m 0 min 0 min 0,0 UV-I 0 W/m 2,6 km/h (1 Bft)
18.12.2013 17:44 7,3 C 5,0 C 87 % 1014,4 hPa 0,0 l/m 0 min 0 min 0,0 UV-I 0 W/m 5,1 km/h (1 Bft)
18.12.2013 17:46 7,3 C 5,0 C 87 % 1014,3 hPa 0,0 l/m 0 min 0 min 0,0 UV-I 0 W/m 10,3 km/h (2 Bft)
18.12.2013 17:48 7,3 C 5,0 C 87 % 1014,2 hPa 0,0 l/m 0 min 0 min 0,0 UV-I 0 W/m 7,7 km/h (2 Bft)
18.12.2013 17:50 7,2 C 5,0 C 87 % 1014,1 hPa 0,0 l/m 0 min 0 min 0,0 UV-I 0 W/m 10,3 km/h (2 Bft)
18.12.2013 17:55 7,2 C 5,0 C 87 % 1014,1 hPa 0,0 l/m 0 min 0 min 0,0 UV-I 0 W/m 15,4 km/h (3 Bft)
18.12.2013 17:58 7,1 C 5,0 C 88 % 1014,1 hPa 0,0 l/m 0 min 0 min 0,0 UV-I 0 W/m 15,4 km/h (3 Bft)
18.12.2013 18:00 7,1 C 5,0 C 88 % 1014,0 hPa 0,0 l/m 0 min 0 min 0,0 UV-I 0 W/m 7,7 km/h (2 Bft)
18.12.2013 18:02 7,1 C 5,0 C 88 % 1013,9 hPa 0,0 l/m 0 min 0 min 0,0 UV-I 0 W/m 7,7 km/h (2 Bft)
18.12.2013 18:06 7,1 C 5,0 C 88 % 1013,8 hPa 0,0 l/m 0 min 0 min 0,0 UV-I 0 W/m 18,0 km/h (3 Bft)
18.12.2013 18:08 7,0 C 5,0 C 88 % 1013,8 hPa 0,0 l/m 0 min 0 min 0,0 UV-I 0 W/m 12,9 km/h (3 Bft)
18.12.2013 18:10 7,0 C 5,0 C 88 % 1013,8 hPa 0,0 l/m 0 min 0 min 0,0 UV-I 0 W/m 7,7 km/h (2 Bft)
18.12.2013 18:12 7,0 C 5,0 C 88 % 1013,7 hPa 0,0 l/m 0 min 0 min 0,0 UV-I 0 W/m 10,3 km/h (2 Bft)
18.12.2013 18:14 7,0 C 5,0 C 88 % 1013,7 hPa 0,0 l/m 0 min 0 min 0,0 UV-I 0 W/m 12,9 km/h (3 Bft)
18.12.2013 18:16 7,0 C 5,0 C 88 % 1013,6 hPa 0,0 l/m 0 min 0 min 0,0 UV-I 0 W/m 15,4 km/h (3 Bft)
18.12.2013 18:18 7,0 C 5,0 C 88 % 1013,5 hPa 0,0 l/m 0 min 0 min 0,0 UV-I 0 W/m 7,7 km/h (2 Bft)
18.12.2013 18:20 7,0 C 5,0 C 88 % 1013,5 hPa 0,0 l/m 0 min 0 min 0,0 UV-I 0 W/m 10,3 km/h (2 Bft)
18.12.2013 18:22 6,9 C 5,0 C 88 % 1013,6 hPa 0,0 l/m 0 min 0 min 0,0 UV-I 0 W/m 12,9 km/h (3 Bft)
18.12.2013 18:24 6,9 C 5,0 C 88 % 1013,6 hPa 0,0 l/m 0 min 0 min 0,0 UV-I 0 W/m 18,0 km/h (3 Bft)
18.12.2013 18:26 7,0 C 5,0 C 88 % 1013,5 hPa 0,0 l/m 0 min 0 min 0,0 UV-I 0 W/m 12,9 km/h (3 Bft)
18.12.2013 18:28 7,0 C 5,0 C 88 % 1013,5 hPa 0,0 l/m 0 min 0 min 0,0 UV-I 0 W/m 20,6 km/h (4 Bft)
18.12.2013 18:30 7,0 C 5,0 C 88 % 1013,5 hPa 0,0 l/m 0 min 0 min 0,0 UV-I 0 W/m 15,4 km/h (3 Bft)
18.12.2013 18:32 7,0 C 5,0 C 88 % 1013,4 hPa 0,0 l/m 0 min 0 min 0,0 UV-I 0 W/m 12,9 km/h (3 Bft)
18.12.2013 18:34 7,0 C 5,0 C 88 % 1013,4 hPa 0,0 l/m 0 min 0 min 0,0 UV-I 0 W/m 20,6 km/h (4 Bft)
18.12.2013 18:36 7,0 C 5,0 C 88 % 1013,4 hPa 0,0 l/m 0 min 0 min 0,0 UV-I 0 W/m 7,7 km/h (2 Bft)
18.12.2013 18:38 7,0 C 5,0 C 88 % 1013,3 hPa 0,0 l/m 0 min 0 min 0,0 UV-I 0 W/m 12,9 km/h (3 Bft)
18.12.2013 18:40 7,0 C 5,0 C 88 % 1013,2 hPa 0,0 l/m 0 min 0 min 0,0 UV-I 0 W/m 7,7 km/h (2 Bft)
18.12.2013 18:42 7,0 C 5,0 C 88 % 1013,2 hPa 0,0 l/m 0 min 0 min 0,0 UV-I 0 W/m 15,4 km/h (3 Bft)
18.12.2013 18:44 7,0 C 5,0 C 89 % 1013,1 hPa 0,0 l/m 0 min 0 min 0,0 UV-I 0 W/m 12,9 km/h (3 Bft)
18.12.2013 18:46 7,1 C 5,0 C 89 % 1013,1 hPa 0,0 l/m 0 min 0 min 0,0 UV-I 0 W/m 18,0 km/h (3 Bft)
18.12.2013 18:48 7,1 C 5,0 C 89 % 1013,1 hPa 0,0 l/m 0 min 0 min 0,0 UV-I 0 W/m 18,0 km/h (3 Bft)
18.12.2013 18:50 7,1 C 5,6 C 89 % 1013,1 hPa 0,0 l/m 0 min 0 min 0,0 UV-I 0 W/m 15,4 km/h (3 Bft)
18.12.2013 18:52 7,1 C 5,6 C 89 % 1013,1 hPa 0,0 l/m 0 min 0 min 0,0 UV-I 0 W/m 12,9 km/h (3 Bft)
18.12.2013 18:54 7,1 C 5,6 C 89 % 1013,1 hPa 0,0 l/m 0 min 0 min 0,0 UV-I 0 W/m 10,3 km/h (2 Bft)
18.12.2013 18:56 7,1 C 5,6 C 89 % 1013,0 hPa 0,0 l/m 0 min 0 min 0,0 UV-I 0 W/m 23,2 km/h (4 Bft)
18.12.2013 18:58 7,1 C 5,6 C 90 % 1012,9 hPa 0,0 l/m 0 min 0 min 0,0 UV-I 0 W/m 10,3 km/h (2 Bft)
18.12.2013 19:00 7,2 C 5,6 C 90 % 1013,0 hPa 0,0 l/m 0 min 0 min 0,0 UV-I 0 W/m 12,9 km/h (3 Bft)
18.12.2013 19:02 7,2 C 5,6 C 90 % 1013,0 hPa 0,0 l/m 0 min 0 min 0,0 UV-I 0 W/m 12,9 km/h (3 Bft)
18.12.2013 19:06 7,2 C 5,6 C 90 % 1012,9 hPa 0,0 l/m 0 min 0 min 0,0 UV-I 0 W/m 18,0 km/h (3 Bft)
18.12.2013 19:08 7,2 C 5,6 C 90 % 1012,8 hPa 0,0 l/m 0 min 0 min 0,0 UV-I 0 W/m 15,4 km/h (3 Bft)
18.12.2013 19:10 7,2 C 5,6 C 90 % 1012,8 hPa 0,0 l/m 0 min 0 min 0,0 UV-I 0 W/m 18,0 km/h (3 Bft)
18.12.2013 19:12 7,2 C 5,6 C 90 % 1012,8 hPa 0,0 l/m 0 min 0 min 0,0 UV-I 0 W/m 15,4 km/h (3 Bft)
18.12.2013 19:14 7,3 C 5,6 C 91 % 1012,8 hPa 0,0 l/m 0 min 0 min 0,0 UV-I 0 W/m 20,6 km/h (4 Bft)
18.12.2013 19:16 7,3 C 5,6 C 90 % 1012,7 hPa 0,0 l/m 0 min 0 min 0,0 UV-I 0 W/m 12,9 km/h (3 Bft)
18.12.2013 19:18 7,3 C 5,6 C 91 % 1012,8 hPa 0,0 l/m 0 min 0 min 0,0 UV-I 0 W/m 20,6 km/h (4 Bft)
18.12.2013 19:20 7,3 C 5,6 C 91 % 1012,7 hPa 0,0 l/m 0 min 0 min 0,0 UV-I 0 W/m 15,4 km/h (3 Bft)
18.12.2013 19:22 7,3 C 5,6 C 91 % 1012,8 hPa 0,0 l/m 0 min 0 min 0,0 UV-I 0 W/m 23,2 km/h (4 Bft)
18.12.2013 19:24 7,3 C 5,6 C 91 % 1012,7 hPa 0,0 l/m 0 min 0 min 0,0 UV-I 0 W/m 18,0 km/h (3 Bft)
18.12.2013 19:26 7,3 C 5,6 C 91 % 1012,7 hPa 0,0 l/m 0 min 0 min 0,0 UV-I 0 W/m 15,4 km/h (3 Bft)
18.12.2013 19:28 7,3 C 5,6 C 91 % 1012,7 hPa 0,0 l/m 0 min 0 min 0,0 UV-I 0 W/m 7,7 km/h (2 Bft)
18.12.2013 19:30 7,3 C 5,6 C 91 % 1012,8 hPa 0,0 l/m 0 min 0 min 0,0 UV-I 0 W/m 15,4 km/h (3 Bft)
18.12.2013 19:32 7,3 C 5,6 C 91 % 1012,8 hPa 0,0 l/m 0 min 0 min 0,0 UV-I 0 W/m 5,1 km/h (1 Bft)
18.12.2013 19:34 7,3 C 5,6 C 91 % 1012,7 hPa 0,0 l/m 0 min 0 min 0,0 UV-I 0 W/m 5,1 km/h (1 Bft)
18.12.2013 19:36 7,3 C 5,6 C 91 % 1012,7 hPa 0,0 l/m 0 min 0 min 0,0 UV-I 0 W/m 10,3 km/h (2 Bft)
18.12.2013 19:38 7,3 C 5,6 C 91 % 1012,7 hPa 0,0 l/m 0 min 0 min 0,0 UV-I 0 W/m 25,7 km/h (4 Bft)
18.12.2013 19:40 7,4 C 6,1 C 95 % 1012,7 hPa 0,0 l/m 0 min 0 min 0,0 UV-I 0 W/m 15,4 km/h (3 Bft)
18.12.2013 19:42 7,4 C 6,1 C 91 % 1012,7 hPa 0,0 l/m 0 min 0 min 0,0 UV-I 0 W/m 20,6 km/h (4 Bft)
18.12.2013 19:44 7,4 C 6,1 C 91 % 1012,6 hPa 0,0 l/m 0 min 0 min 0,0 UV-I 0 W/m 10,3 km/h (2 Bft)
18.12.2013 19:46 7,4 C 6,1 C 91 % 1012,6 hPa 0,0 l/m 0 min 0 min 0,0 UV-I 0 W/m 12,9 km/h (3 Bft)
18.12.2013 19:48 7,4 C 6,1 C 91 % 1012,5 hPa 0,0 l/m 0 min 0 min 0,0 UV-I 0 W/m 20,6 km/h (4 Bft)
18.12.2013 19:50 7,4 C 6,1 C 91 % 1012,5 hPa 0,0 l/m 0 min 0 min 0,0 UV-I 0 W/m 7,7 km/h (2 Bft)
18.12.2013 19:52 7,5 C 6,1 C 91 % 1012,4 hPa 0,0 l/m 0 min 0 min 0,0 UV-I 0 W/m 15,4 km/h (3 Bft)
18.12.2013 19:54 7,4 C 5,6 C 91 % 1012,4 hPa 0,0 l/m 0 min 0 min 0,0 UV-I 0 W/m 18,0 km/h (3 Bft)
18.12.2013 19:56 7,5 C 5,6 C 91 % 1012,3 hPa 0,0 l/m 0 min 0 min 0,0 UV-I 0 W/m 18,0 km/h (3 Bft)
18.12.2013 19:58 7,5 C 5,6 C 91 % 1012,2 hPa 0,0 l/m 0 min 0 min 0,0 UV-I 0 W/m 15,4 km/h (3 Bft)
18.12.2013 20:00 7,4 C 5,6 C 91 % 1012,2 hPa 0,0 l/m 0 min 0 min 0,0 UV-I 0 W/m 7,7 km/h (2 Bft)
18.12.2013 20:02 7,5 C 5,6 C 91 % 1012,1 hPa 0,0 l/m 0 min 0 min 0,0 UV-I 0 W/m 20,6 km/h (4 Bft)
18.12.2013 20:06 7,4 C 5,6 C 91 % 1012,1 hPa 0,0 l/m 0 min 0 min 0,0 UV-I 0 W/m 18,0 km/h (3 Bft)
18.12.2013 20:08 7,4 C 5,6 C 91 % 1012,1 hPa 0,0 l/m 0 min 0 min 0,0 UV-I 0 W/m 23,2 km/h (4 Bft)
18.12.2013 20:10 7,4 C 5,6 C 91 % 1012,0 hPa 0,0 l/m 0 min 0 min 0,0 UV-I 0 W/m 18,0 km/h (3 Bft)
18.12.2013 20:12 7,4 C 5,6 C 91 % 1012,0 hPa 0,0 l/m 0 min 0 min 0,0 UV-I 0 W/m 18,0 km/h (3 Bft)
18.12.2013 20:14 7,4 C 5,6 C 91 % 1012,0 hPa 0,0 l/m 0 min 0 min 0,0 UV-I 0 W/m 10,3 km/h (2 Bft)
18.12.2013 20:16 7,4 C 5,6 C 91 % 1011,9 hPa 0,0 l/m 0 min 0 min 0,0 UV-I 0 W/m 18,0 km/h (3 Bft)
18.12.2013 20:18 7,4 C 5,6 C 91 % 1011,9 hPa 0,0 l/m 0 min 0 min 0,0 UV-I 0 W/m 15,4 km/h (3 Bft)
18.12.2013 20:20 7,4 C 5,6 C 91 % 1011,9 hPa 0,0 l/m 0 min 0 min 0,0 UV-I 0 W/m 12,9 km/h (3 Bft)
18.12.2013 20:22 7,4 C 5,6 C 91 % 1011,9 hPa 0,0 l/m 0 min 0 min 0,0 UV-I 0 W/m 5,1 km/h (1 Bft)
18.12.2013 20:24 7,3 C 5,6 C 91 % 1011,8 hPa 0,0 l/m 0 min 0 min 0,0 UV-I 0 W/m 15,4 km/h (3 Bft)
18.12.2013 20:26 7,4 C 5,6 C 91 % 1011,8 hPa 0,0 l/m 0 min 0 min 0,0 UV-I 0 W/m 12,9 km/h (3 Bft)
18.12.2013 20:28 7,3 C 5,6 C 91 % 1011,6 hPa 0,0 l/m 0 min 0 min 0,0 UV-I 0 W/m 10,3 km/h (2 Bft)
18.12.2013 20:30 7,3 C 5,6 C 91 % 1011,5 hPa 0,0 l/m 0 min 0 min 0,0 UV-I 0 W/m 18,0 km/h (3 Bft)
18.12.2013 20:32 7,3 C 5,6 C 91 % 1011,5 hPa 0,0 l/m 0 min 0 min 0,0 UV-I 0 W/m 18,0 km/h (3 Bft)
18.12.2013 20:34 7,3 C 5,6 C 91 % 1011,5 hPa 0,0 l/m 0 min 0 min 0,0 UV-I 0 W/m 15,4 km/h (3 Bft)
18.12.2013 20:36 7,3 C 5,6 C 91 % 1011,4 hPa 0,0 l/m 0 min 0 min 0,0 UV-I 0 W/m 18,0 km/h (3 Bft)
18.12.2013 20:38 7,3 C 5,6 C 91 % 1011,3 hPa 0,0 l/m 0 min 0 min 0,0 UV-I 0 W/m 12,9 km/h (3 Bft)
18.12.2013 20:40 7,3 C 5,6 C 91 % 1011,3 hPa 0,0 l/m 0 min 0 min 0,0 UV-I 0 W/m 12,9 km/h (3 Bft)
18.12.2013 20:42 7,3 C 5,6 C 91 % 1011,2 hPa 0,0 l/m 0 min 0 min 0,0 UV-I 0 W/m 20,6 km/h (4 Bft)
18.12.2013 20:44 7,2 C 5,6 C 91 % 1011,2 hPa 0,0 l/m 0 min 0 min 0,0 UV-I 0 W/m 20,6 km/h (4 Bft)
18.12.2013 20:46 7,2 C 5,6 C 91 % 1011,1 hPa 0,0 l/m 0 min 0 min 0,0 UV-I 0 W/m 15,4 km/h (3 Bft)
18.12.2013 20:48 7,2 C 5,6 C 91 % 1011,1 hPa 0,0 l/m 0 min 0 min 0,0 UV-I 0 W/m 15,4 km/h (3 Bft)
18.12.2013 20:50 7,2 C 5,6 C 91 % 1011,0 hPa 0,0 l/m 0 min 0 min 0,0 UV-I 0 W/m 15,4 km/h (3 Bft)
18.12.2013 20:52 7,2 C 5,6 C 91 % 1011,0 hPa 0,0 l/m 0 min 0 min 0,0 UV-I 0 W/m 20,6 km/h (4 Bft)
18.12.2013 20:54 7,2 C 5,6 C 91 % 1010,9 hPa 0,0 l/m 0 min 0 min 0,0 UV-I 0 W/m 15,4 km/h (3 Bft)
18.12.2013 20:56 7,2 C 5,6 C 91 % 1010,8 hPa 0,0 l/m 0 min 0 min 0,0 UV-I 0 W/m 15,4 km/h (3 Bft)
18.12.2013 20:58 7,2 C 5,6 C 91 % 1010,7 hPa 0,0 l/m 0 min 0 min 0,0 UV-I 0 W/m 10,3 km/h (2 Bft)
18.12.2013 21:00 7,2 C 5,0 C 91 % 1010,7 hPa 0,0 l/m 0 min 0 min 0,0 UV-I 0 W/m 12,9 km/h (3 Bft)
18.12.2013 21:02 7,2 C 5,0 C 91 % 1010,7 hPa 0,0 l/m 0 min 0 min 0,0 UV-I 0 W/m 15,4 km/h (3 Bft)
18.12.2013 21:06 7,2 C 5,0 C 91 % 1010,7 hPa 0,0 l/m 0 min 0 min 0,0 UV-I 0 W/m 23,2 km/h (4 Bft)
18.12.2013 21:08 7,2 C 5,0 C 91 % 1010,7 hPa 0,0 l/m 0 min 0 min 0,0 UV-I 0 W/m 18,0 km/h (3 Bft)
18.12.2013 21:10 7,1 C 5,0 C 91 % 1010,7 hPa 0,0 l/m 0 min 0 min 0,0 UV-I 0 W/m 18,0 km/h (3 Bft)
18.12.2013 21:12 7,1 C 5,6 C 92 % 1010,6 hPa 0,0 l/m 0 min 0 min 0,0 UV-I 0 W/m 10,3 km/h (2 Bft)
18.12.2013 21:14 7,1 C 5,6 C 92 % 1010,7 hPa 0,0 l/m 0 min 0 min 0,0 UV-I 0 W/m 15,4 km/h (3 Bft)
18.12.2013 21:16 7,1 C 5,6 C 92 % 1010,7 hPa 0,0 l/m 0 min 0 min 0,0 UV-I 0 W/m 18,0 km/h (3 Bft)
18.12.2013 21:18 7,1 C 5,6 C 92 % 1010,6 hPa 0,0 l/m 0 min 0 min 0,0 UV-I 0 W/m 12,9 km/h (3 Bft)
18.12.2013 21:20 7,1 C 5,6 C 92 % 1010,6 hPa 0,0 l/m 0 min 0 min 0,0 UV-I 0 W/m 18,0 km/h (3 Bft)
18.12.2013 21:22 7,1 C 5,0 C 92 % 1010,5 hPa 0,0 l/m 0 min 0 min 0,0 UV-I 0 W/m 15,4 km/h (3 Bft)
18.12.2013 21:24 7,1 C 5,0 C 92 % 1010,5 hPa 0,0 l/m 0 min 0 min 0,0 UV-I 0 W/m 7,7 km/h (2 Bft)
18.12.2013 21:26 7,1 C 5,0 C 92 % 1010,5 hPa 0,0 l/m 0 min 0 min 0,0 UV-I 0 W/m 18,0 km/h (3 Bft)
18.12.2013 21:28 7,1 C 5,6 C 91 % 1010,4 hPa 0,0 l/m 0 min 0 min 0,0 UV-I 0 W/m 18,0 km/h (3 Bft)
18.12.2013 21:30 7,1 C 5,6 C 92 % 1010,3 hPa 0,0 l/m 0 min 0 min 0,0 UV-I 0 W/m 20,6 km/h (4 Bft)
18.12.2013 21:32 7,1 C 5,6 C 92 % 1010,2 hPa 0,0 l/m 0 min 0 min 0,0 UV-I 0 W/m 20,6 km/h (4 Bft)
18.12.2013 21:34 7,2 C 5,6 C 92 % 1010,3 hPa 0,0 l/m 0 min 0 min 0,0 UV-I 0 W/m 20,6 km/h (4 Bft)
18.12.2013 21:36 7,2 C 5,6 C 92 % 1010,2 hPa 0,0 l/m 0 min 0 min 0,0 UV-I 0 W/m 23,2 km/h (4 Bft)
18.12.2013 21:38 7,2 C 5,6 C 92 % 1010,0 hPa 0,0 l/m 0 min 0 min 0,0 UV-I 0 W/m 23,2 km/h (4 Bft)
18.12.2013 21:40 7,2 C 5,6 C 92 % 1010,0 hPa 0,0 l/m 0 min 0 min 0,0 UV-I 0 W/m 25,7 km/h (4 Bft)
18.12.2013 21:42 7,2 C 5,6 C 92 % 1009,9 hPa 0,0 l/m 0 min 0 min 0,0 UV-I 0 W/m 28,3 km/h (4 Bft)
18.12.2013 21:44 7,3 C 5,6 C 92 % 1009,9 hPa 0,0 l/m 0 min 0 min 0,0 UV-I 0 W/m 20,6 km/h (4 Bft)
18.12.2013 21:46 7,3 C 5,6 C 91 % 1009,8 hPa 0,0 l/m 0 min 0 min 0,0 UV-I 0 W/m 23,2 km/h (4 Bft)
18.12.2013 21:48 7,3 C 5,6 C 91 % 1009,7 hPa 0,0 l/m 0 min 0 min 0,0 UV-I 0 W/m 28,3 km/h (4 Bft)
18.12.2013 21:50 7,3 C 5,6 C 91 % 1009,6 hPa 0,0 l/m 0 min 0 min 0,0 UV-I 0 W/m 25,7 km/h (4 Bft)
18.12.2013 21:52 7,3 C 5,6 C 91 % 1009,6 hPa 0,0 l/m 0 min 0 min 0,0 UV-I 0 W/m 25,7 km/h (4 Bft)
18.12.2013 21:54 7,4 C 6,1 C 95 % 1009,4 hPa 0,0 l/m 0 min 0 min 0,0 UV-I 0 W/m 28,3 km/h (4 Bft)
18.12.2013 21:56 7,4 C 6,1 C 91 % 1009,4 hPa 0,0 l/m 0 min 0 min 0,0 UV-I 0 W/m 28,3 km/h (4 Bft)
18.12.2013 21:58 7,4 C 6,1 C 91 % 1009,4 hPa 0,0 l/m 0 min 0 min 0,0 UV-I 0 W/m 25,7 km/h (4 Bft)
18.12.2013 22:00 7,5 C 6,1 C 91 % 1009,4 hPa 0,0 l/m 0 min 0 min 0,0 UV-I 0 W/m 23,2 km/h (4 Bft)
18.12.2013 22:02 7,6 C 6,1 C 91 % 1009,3 hPa 0,0 l/m 0 min 0 min 0,0 UV-I 0 W/m 18,0 km/h (3 Bft)
18.12.2013 22:06 7,6 C 6,1 C 90 % 1009,1 hPa 0,0 l/m 0 min 0 min 0,0 UV-I 0 W/m 20,6 km/h (4 Bft)
18.12.2013 22:08 7,6 C 6,1 C 90 % 1009,1 hPa 0,0 l/m 0 min 0 min 0,0 UV-I 0 W/m 12,9 km/h (3 Bft)
18.12.2013 22:10 7,7 C 6,1 C 90 % 1009,1 hPa 0,0 l/m 0 min 0 min 0,0 UV-I 0 W/m 23,2 km/h (4 Bft)
18.12.2013 22:12 7,7 C 6,1 C 90 % 1009,1 hPa 0,0 l/m 0 min 0 min 0,0 UV-I 0 W/m 20,6 km/h (4 Bft)
18.12.2013 22:14 7,7 C 6,1 C 90 % 1008,9 hPa 0,0 l/m 0 min 0 min 0,0 UV-I 0 W/m 20,6 km/h (4 Bft)
18.12.2013 22:16 7,7 C 6,1 C 89 % 1008,9 hPa 0,0 l/m 0 min 0 min 0,0 UV-I 0 W/m 28,3 km/h (4 Bft)
18.12.2013 22:18 7,7 C 6,1 C 89 % 1008,9 hPa 0,0 l/m 0 min 0 min 0,0 UV-I 0 W/m 25,7 km/h (4 Bft)
18.12.2013 22:20 7,8 C 6,1 C 89 % 1008,8 hPa 0,0 l/m 0 min 0 min 0,0 UV-I 0 W/m 12,9 km/h (3 Bft)
18.12.2013 22:22 7,8 C 6,1 C 89 % 1008,9 hPa 0,0 l/m 0 min 0 min 0,0 UV-I 0 W/m 15,4 km/h (3 Bft)
18.12.2013 22:24 7,8 C 6,1 C 89 % 1008,9 hPa 0,0 l/m 0 min 0 min 0,0 UV-I 0 W/m 18,0 km/h (3 Bft)
18.12.2013 22:26 7,8 C 6,1 C 89 % 1008,8 hPa 0,0 l/m 0 min 0 min 0,0 UV-I 0 W/m 18,0 km/h (3 Bft)
18.12.2013 22:28 7,7 C 5,6 C 89 % 1008,8 hPa 0,0 l/m 0 min 0 min 0,0 UV-I 0 W/m 18,0 km/h (3 Bft)
18.12.2013 22:30 7,7 C 5,6 C 88 % 1008,7 hPa 0,0 l/m 0 min 0 min 0,0 UV-I 0 W/m 15,4 km/h (3 Bft)
18.12.2013 22:32 7,7 C 5,6 C 88 % 1008,7 hPa 0,0 l/m 0 min 0 min 0,0 UV-I 0 W/m 20,6 km/h (4 Bft)
18.12.2013 22:34 7,6 C 5,6 C 88 % 1008,7 hPa 0,0 l/m 0 min 0 min 0,0 UV-I 0 W/m 23,2 km/h (4 Bft)
18.12.2013 22:36 7,6 C 5,6 C 88 % 1008,6 hPa 0,0 l/m 0 min 0 min 0,0 UV-I 0 W/m 20,6 km/h (4 Bft)
18.12.2013 22:38 7,6 C 5,6 C 88 % 1008,7 hPa 0,0 l/m 0 min 0 min 0,0 UV-I 0 W/m 18,0 km/h (3 Bft)
18.12.2013 22:40 7,5 C 5,6 C 88 % 1008,6 hPa 0,0 l/m 0 min 0 min 0,0 UV-I 0 W/m 15,4 km/h (3 Bft)
18.12.2013 22:42 7,5 C 5,6 C 89 % 1008,6 hPa 0,0 l/m 0 min 0 min 0,0 UV-I 0 W/m 12,9 km/h (3 Bft)
18.12.2013 22:44 7,4 C 5,6 C 88 % 1008,5 hPa 0,0 l/m 0 min 0 min 0,0 UV-I 0 W/m 18,0 km/h (3 Bft)
18.12.2013 22:46 7,4 C 5,6 C 88 % 1008,5 hPa 0,0 l/m 0 min 0 min 0,0 UV-I 0 W/m 15,4 km/h (3 Bft)
18.12.2013 22:48 7,4 C 5,6 C 89 % 1008,5 hPa 0,0 l/m 0 min 0 min 0,0 UV-I 0 W/m 18,0 km/h (3 Bft)
18.12.2013 22:50 7,3 C 5,6 C 89 % 1008,4 hPa 0,0 l/m 0 min 0 min 0,0 UV-I 0 W/m 18,0 km/h (3 Bft)
18.12.2013 22:52 7,3 C 5,6 C 89 % 1008,4 hPa 0,0 l/m 0 min 0 min 0,0 UV-I 0 W/m 28,3 km/h (4 Bft)
18.12.2013 22:54 7,3 C 5,6 C 89 % 1008,3 hPa 0,0 l/m 0 min 0 min 0,0 UV-I 0 W/m 25,7 km/h (4 Bft)
18.12.2013 22:56 7,2 C 5,0 C 89 % 1008,2 hPa 0,0 l/m 0 min 0 min 0,0 UV-I 0 W/m 18,0 km/h (3 Bft)
18.12.2013 22:58 7,2 C 5,6 C 89 % 1008,2 hPa 0,0 l/m 0 min 0 min 0,0 UV-I 0 W/m 15,4 km/h (3 Bft)
18.12.2013 23:00 7,2 C 5,0 C 89 % 1008,2 hPa 0,0 l/m 0 min 0 min 0,0 UV-I 0 W/m 12,9 km/h (3 Bft)
18.12.2013 23:02 7,1 C 5,0 C 89 % 1008,1 hPa 0,0 l/m 0 min 0 min 0,0 UV-I 0 W/m 15,4 km/h (3 Bft)
18.12.2013 23:04 7,1 C 5,0 C 89 % 1008,0 hPa 0,0 l/m 0 min 0 min 0,0 UV-I 0 W/m 23,2 km/h (4 Bft)
18.12.2013 23:06 7,1 C 5,0 C 89 % 1007,9 hPa 0,0 l/m 0 min 0 min 0,0 UV-I 0 W/m 15,4 km/h (3 Bft)
18.12.2013 23:08 7,1 C 5,0 C 90 % 1007,9 hPa 0,0 l/m 0 min 0 min 0,0 UV-I 0 W/m 18,0 km/h (3 Bft)
18.12.2013 23:10 7,1 C 5,0 C 90 % 1007,7 hPa 0,0 l/m 0 min 0 min 0,0 UV-I 0 W/m 15,4 km/h (3 Bft)
18.12.2013 23:12 7,0 C 5,0 C 90 % 1007,7 hPa 0,0 l/m 0 min 0 min 0,0 UV-I 0 W/m 18,0 km/h (3 Bft)
18.12.2013 23:14 7,0 C 5,0 C 90 % 1007,6 hPa 0,0 l/m 0 min 0 min 0,0 UV-I 0 W/m 10,3 km/h (2 Bft)
18.12.2013 23:16 7,0 C 5,0 C 90 % 1007,7 hPa 0,0 l/m 0 min 0 min 0,0 UV-I 0 W/m 15,4 km/h (3 Bft)
18.12.2013 23:18 6,9 C 5,0 C 90 % 1007,7 hPa 0,0 l/m 0 min 0 min 0,0 UV-I 0 W/m 18,0 km/h (3 Bft)
18.12.2013 23:20 6,9 C 5,0 C 90 % 1007,7 hPa 0,0 l/m 0 min 0 min 0,0 UV-I 0 W/m 10,3 km/h (2 Bft)
18.12.2013 23:22 6,9 C 5,0 C 90 % 1007,6 hPa 0,0 l/m 0 min 0 min 0,0 UV-I 0 W/m 15,4 km/h (3 Bft)
18.12.2013 23:24 6,9 C 5,0 C 90 % 1007,5 hPa 0,0 l/m 0 min 0 min 0,0 UV-I 0 W/m 12,9 km/h (3 Bft)
18.12.2013 23:26 6,9 C 5,0 C 90 % 1007,4 hPa 0,0 l/m 0 min 0 min 0,0 UV-I 0 W/m 15,4 km/h (3 Bft)
18.12.2013 23:28 6,8 C 5,0 C 90 % 1007,5 hPa 0,0 l/m 0 min 0 min 0,0 UV-I 0 W/m 12,9 km/h (3 Bft)
18.12.2013 23:30 6,8 C 5,0 C 90 % 1007,5 hPa 0,0 l/m 0 min 0 min 0,0 UV-I 0 W/m 12,9 km/h (3 Bft)
18.12.2013 23:32 6,8 C 5,0 C 90 % 1007,4 hPa 0,0 l/m 0 min 0 min 0,0 UV-I 0 W/m 15,4 km/h (3 Bft)
18.12.2013 23:34 6,8 C 5,0 C 90 % 1007,4 hPa 0,0 l/m 0 min 0 min 0,0 UV-I 0 W/m 18,0 km/h (3 Bft)
18.12.2013 23:36 6,8 C 5,0 C 90 % 1007,3 hPa 0,0 l/m 0 min 0 min 0,0 UV-I 0 W/m 15,4 km/h (3 Bft)
18.12.2013 23:38 6,8 C 5,0 C 90 % 1007,3 hPa 0,0 l/m 0 min 0 min 0,0 UV-I 0 W/m 15,4 km/h (3 Bft)
18.12.2013 23:40 6,8 C 5,0 C 90 % 1007,2 hPa 0,0 l/m 0 min 0 min 0,0 UV-I 0 W/m 20,6 km/h (4 Bft)
18.12.2013 23:42 6,8 C 5,0 C 90 % 1007,2 hPa 0,0 l/m 0 min 0 min 0,0 UV-I 0 W/m 20,6 km/h (4 Bft)
18.12.2013 23:44 6,8 C 5,0 C 90 % 1007,1 hPa 0,0 l/m 0 min 0 min 0,0 UV-I 0 W/m 20,6 km/h (4 Bft)
18.12.2013 23:46 6,7 C 5,0 C 90 % 1007,0 hPa 0,0 l/m 0 min 0 min 0,0 UV-I 0 W/m 18,0 km/h (3 Bft)
18.12.2013 23:48 6,7 C 5,0 C 91 % 1007,0 hPa 0,0 l/m 0 min 0 min 0,0 UV-I 0 W/m 15,4 km/h (3 Bft)
18.12.2013 23:50 6,8 C 5,0 C 91 % 1006,9 hPa 0,0 l/m 0 min 0 min 0,0 UV-I 0 W/m 28,3 km/h (4 Bft)
18.12.2013 23:52 6,8 C 5,0 C 91 % 1006,8 hPa 0,0 l/m 0 min 0 min 0,0 UV-I 0 W/m 20,6 km/h (4 Bft)
18.12.2013 23:54 6,8 C 5,6 C 91 % 1006,8 hPa 0,0 l/m 0 min 0 min 0,0 UV-I 0 W/m 20,6 km/h (4 Bft)
18.12.2013 23:56 6,8 C 5,6 C 91 % 1006,6 hPa 0,0 l/m 0 min 0 min 0,0 UV-I 0 W/m 25,7 km/h (4 Bft)
18.12.2013 23:58 6,8 C 5,6 C 91 % 1006,6 hPa 0,0 l/m 0 min 0 min 0,0 UV-I 0 W/m 30,9 km/h (5 Bft)
_ Min-Zeit 00:00 00:00 14:36 23:56 - - - - - 00:00
Minimum _ 4,2 C 2,8 C 79 % 1006,6 hPa - - - - - 0,0 km/h (0 Bft)
_ Max-Zeit 11:36 14:30 00:00 00:00 00:00 09:52 00:00 00:00 11:16 11:06
Maximum _ 10,2 C 9,4 C 95 % 1021,4 hPa 0,0 l/m 2 min 0 min 0,0 UV-I 223 W/m 30,9 km/h
S-SW (5 Bft)
Durchschnitt _ 7,1 C 5,6 C 87 % 1016,5 hPa #0,0 l/m #2:16 h #0 min. 0,0 UV-I 99 W/m 11,1 km/h (2 Bft)
© 2013 W. Hausmann